GEFSCGP_850_meantemp_000.txt.gz
Temperature
16 15 15 16 15 16 16 15 14 15 16 16 15 15 15 15 15 14 15 16 16 15 15 14 14 14 14 14 14 13 13 12 12 12 11 11 11 12 11 11 11 11 11 11
14 15 16 16 17 16 16 15 14 15 15 15 15 14 15 15 14 15 15 16 16 15 14 14 14 14 14 14 13 13 13 12 11 11 11 11 11 11 11 11 11 11 11 11
15 16 17 17 16 15 15 15 14 13 13 14 14 14 14 15 14 15 15 16 16 15 14 13 14 14 14 13 13 12 12 11 10 10 10 10 10 11 11 11 11 11 11 11
15 16 17 16 15 15 14 14 14 13 13 12 14 12 15 15 14 12 13 14 16 14 14 13 13 13 13 13 12 11 11 11 10 10 10 10 9 9 10 10 10 10 10 10
15 16 16 16 15 15 14 13 13 13 12 11 11 12 12 14 14 12 11 13 15 14 13 13 13 13 13 12 11 11 11 10 10 10 9 9 9 9 9 9 9 9 9 9
14 15 14 14 14 14 14 13 12 10 10 11 11 11 11 12 14 12 11 13 14 14 13 13 13 13 13 12 11 10 10 10 10 9 9 9 9 9 9 9 9 9 9 9
13 13 13 14 14 13 12 12 10 11 11 12 11 11 11 12 11 10 10 13 14 13 13 13 13 13 12 11 11 10 10 10 10 9 9 9 9 9 9 9 9 9 8 8
11 11 13 13 14 13 12 11 11 10 10 11 12 10 11 11 10 10 12 13 13 12 13 13 13 12 11 11 11 10 10 10 10 9 9 9 8 8 8 8 8 8 8 8
11 11 12 13 12 12 11 11 11 10 9 8 10 11 12 11 11 10 10 11 12 12 12 12 12 12 12 11 11 10 10 10 9 9 8 8 8 8 8 8 8 8 8 7
11 8 11 12 12 12 10 11 6 9 8 7 9 9 11 12 12 11 11 11 12 12 12 12 12 12 12 11 11 10 10 9 9 8 8 8 8 8 7 7 7 7 7 7
11 9 9 10 10 10 10 9 9 8 8 9 9 10 11 12 11 10 10 12 13 13 13 12 12 12 12 11 10 10 9 9 9 8 7 7 7 7 7 7 7 7 7 7
11 8 7 8 9 9 9 9 8 7 8 7 8 10 12 10 10 10 10 12 12 12 12 11 11 12 11 11 10 9 9 9 9 8 7 7 6 6 6 6 6 6 6 6
9 8 7 8 8 9 8 9 9 8 7 7 7 8 10 8 9 10 11 12 12 12 12 12 11 11 11 11 9 8 8 9 8 7 6 6 6 5 5 5 5 5 5 4
8 7 8 8 8 9 7 8 8 7 7 6 7 8 9 9 9 10 11 11 12 12 11 12 11 10 10 9 8 8 8 7 7 7 6 5 5 4 4 3 3 2 2 2
6 5 6 7 7 7 7 7 7 7 7 6 7 7 7 4 4 5 6 7 10 11 11 11 10 8 8 7 7 7 6 7 6 5 5 4 3 2 2 1 1 -0 -1 -1
5 4 5 4 6 6 5 6 6 6 6 6 6 5 2 3 4 4 3 4 6 10 10 9 7 7 7 7 6 6 5 5 5 4 3 2 2 1 0 -1 -3 -3 -2 -2
2 3 3 2 5 4 3 5 6 6 6 5 4 3 1 3 4 4 3 2 3 7 8 7 5 4 4 5 4 4 4 4 3 3 2 1 -1 -1 -3 -4 -4 -4 -4 -3
2 2 3 2 3 2 5 7 6 5 6 3 3 3 3 3 3 3 3 2 2 3 4 5 4 4 4 4 4 3 3 2 1 -0 -1 -2 -3 -3 -4 -5 -5 -4 -4 -4
2 2 2 0 1 2 4 5 4 4 3 3 2 3 4 3 3 4 3 3 3 3 2 1 0 1 3 3 3 3 1 0 -1 -2 -2 -3 -4 -4 -5 -5 -5 -5 -4 -4
2 2 0 -2 -1 -1 3 5 5 3 1 3 2 4 4 3 2 5 4 4 4 4 3 2 1 1 1 2 2 0 -0 -1 -2 -2 -3 -4 -4 -5 -6 -6 -6 -5 -5 -5
0 0 -1 -1 -2 -0 3 4 4 2 2 4 4 4 4 2 3 5 5 4 4 3 2 1 0 -0 -0 -1 -1 -1 -2 -3 -3 -4 -4 -5 -5 -6 -6 -6 -6 -6 -6 -6
-1 -1 -1 -1 -2 -2 3 2 1 3 4 4 4 4 4 4 4 4 5 5 4 3 2 1 -0 -1 -2 -4 -4 -3 -3 -4 -5 -5 -5 -5 -6 -7 -7 -7 -7 -7 -7 -7
-1 0 -1 0 1 3 4 3 4 4 3 3 3 3 3 3 4 5 5 5 4 2 0 -1 -2 -3 -4 -5 -5 -4 -5 -5 -5 -6 -6 -7 -8 -8 -8 -8 -8 -8 -8 -8
-0 1 0 1 1 3 3 3 3 3 2 2 2 2 3 3 4 4 3 3 3 1 -1 -2 -3 -4 -5 -6 -6 -6 -5 -6 -6 -7 -8 -8 -8 -8 -9 -9 -9 -9 -9 -9
1 -0 -0 0 2 2 3 3 2 2 1 -0 -0 0 1 2 2 3 3 2 1 -1 -2 -3 -4 -5 -6 -6 -7 -7 -6 -7 -8 -8 -9 -9 -9 -9 -9 -9 -9 -9 -10 -11
0 -0 -1 1 2 2 2 2 0 -1 -2 -2 -2 -2 -1 -0 -0 0 2 1 -1 -2 -4 -5 -6 -6 -7 -7 -7 -7 -7 -8 -9 -9 -9 -9 -9 -9 -9 -9 -9 -9 -10 -10

GEFSCGP_850_meantemp_006.txt.gz
Temperature
15 13 14 15 14 15 14 14 13 12 13 14 13 13 14 15 14 13 14 15 16 16 16 15 14 14 14 14 14 14 14 13 13 12 12 11 11 11 10 10 10 10 10 11
13 14 15 15 15 15 14 14 12 12 13 13 11 11 12 11 12 14 14 14 15 15 15 14 14 13 13 13 13 13 13 13 12 12 11 10 10 10 10 10 10 10 10 10
15 15 15 16 15 14 14 13 13 12 11 10 10 11 12 13 13 14 14 15 15 14 14 14 13 13 13 13 13 13 13 12 12 11 10 10 10 10 10 10 10 10 10 9
14 13 14 15 14 14 12 13 12 11 10 9 10 10 10 10 10 11 13 14 15 15 14 12 12 12 12 13 13 13 12 12 11 10 10 10 9 9 9 9 9 9 9 9
13 12 13 14 14 13 13 12 11 10 10 8 8 8 9 9 12 12 10 13 15 15 15 13 12 12 12 12 12 12 12 11 11 10 10 9 9 9 9 9 9 9 8 8
12 12 12 13 13 12 11 11 10 8 7 9 10 8 9 9 12 10 9 12 14 14 15 14 12 12 12 12 12 12 12 11 10 10 9 9 9 9 8 8 8 8 8 8
10 11 12 12 12 11 10 10 9 9 9 9 9 9 9 10 10 10 8 10 11 12 13 13 13 12 12 12 12 12 11 11 10 9 9 9 9 8 8 8 8 8 8 8
9 10 11 11 12 11 10 10 10 9 8 7 8 8 9 9 9 9 9 8 9 9 11 12 12 11 12 12 12 11 11 11 10 10 9 9 8 8 8 8 8 8 8 7
9 9 10 10 11 11 11 9 9 8 6 6 6 6 7 9 7 6 6 7 7 8 9 10 10 10 11 11 11 11 11 11 10 10 9 9 8 8 7 7 7 7 7 7
9 8 8 8 10 10 10 8 6 7 7 7 6 6 7 7 5 4 5 5 6 7 8 9 9 9 10 11 11 11 11 10 10 10 9 9 8 7 7 7 7 7 7 6
7 7 7 7 9 10 9 9 8 6 5 5 5 7 7 5 3 3 3 5 6 6 6 6 7 8 9 10 10 10 10 10 10 9 9 8 8 7 7 6 6 6 6 6
5 5 5 6 7 8 9 8 6 5 5 4 4 7 6 4 4 4 4 5 5 4 4 4 5 6 7 8 9 9 9 9 9 8 8 7 7 6 6 6 6 6 6 5
7 5 5 6 7 6 6 6 6 5 3 4 4 6 7 7 6 6 5 4 4 4 3 3 3 4 5 7 8 8 7 7 7 6 6 5 5 6 5 5 5 5 4 4
7 4 5 5 6 4 4 5 5 4 2 2 3 4 5 5 5 5 5 4 4 3 3 2 2 2 2 3 4 4 4 5 5 4 4 4 5 5 5 4 3 3 2 1
4 3 3 3 3 3 3 3 3 3 2 2 3 3 4 4 3 3 4 4 3 3 2 2 1 -0 -0 -0 0 1 2 2 2 2 4 4 4 4 3 2 2 1 -0 -1
2 2 1 1 2 2 2 3 3 3 3 2 3 3 4 4 3 3 4 4 3 3 3 2 1 -0 -1 -1 -1 -0 0 0 1 2 2 3 2 2 1 0 -0 -1 -2 -3
1 1 0 -1 0 1 2 3 4 3 2 2 1 2 3 2 2 3 3 3 3 3 3 3 2 1 0 0 -0 -0 -1 -1 -1 -0 0 1 -0 -1 -1 -2 -2 -3 -4 -4
1 1 0 -1 -1 -1 1 2 2 2 2 2 2 2 2 2 3 3 3 3 3 3 3 3 2 2 1 0 0 -0 -1 -2 -2 -2 -2 -2 -3 -3 -3 -4 -4 -4 -5 -5
0 1 -0 -1 -2 -2 1 2 2 1 1 2 2 2 2 3 2 2 2 3 2 2 2 3 2 1 1 -0 -1 -1 -2 -3 -4 -4 -4 -4 -4 -5 -5 -5 -5 -5 -5 -6
-0 -0 -1 -3 -2 -2 1 2 2 1 0 2 2 1 2 1 -0 1 1 1 1 1 2 2 2 1 -0 -1 -1 -2 -3 -4 -5 -5 -5 -5 -5 -5 -6 -6 -6 -6 -6 -6
-0 -1 -2 -3 -4 -2 -0 1 1 -1 0 3 2 1 0 -1 -1 -1 -1 -1 -0 0 1 1 1 0 -1 -2 -3 -3 -4 -5 -6 -6 -6 -6 -6 -7 -7 -7 -7 -7 -7 -7
-1 -2 -3 -4 -5 -3 0 1 -0 1 2 2 0 -1 -2 -2 -2 -2 -2 -2 -1 -1 -0 0 -0 -1 -2 -3 -4 -4 -5 -6 -7 -7 -7 -7 -7 -8 -8 -8 -8 -8 -8 -8
-2 -2 -3 -3 -1 1 3 2 2 2 1 -1 -2 -2 -3 -3 -2 -2 -2 -2 -2 -1 -1 -1 -1 -2 -3 -4 -5 -5 -7 -7 -7 -7 -7 -8 -8 -9 -9 -9 -9 -9 -9 -9
-3 -2 -3 -3 -1 1 2 2 1 0 -1 -2 -3 -3 -3 -2 -2 -2 -2 -2 -2 -2 -1 -2 -3 -4 -5 -6 -6 -7 -8 -8 -8 -8 -9 -9 -9 -9 -9 -9 -9 -9 -9 -10
-3 -2 -3 -3 -1 0 1 1 -0 -2 -3 -4 -4 -3 -3 -2 -2 -2 -2 -2 -2 -2 -3 -4 -5 -6 -7 -7 -8 -8 -8 -8 -9 -10 -10 -10 -10 -10 -9 -9 -9 -9 -10 -11
-3 -3 -3 -2 1 -0 0 -0 -2 -4 -4 -4 -4 -3 -3 -3 -3 -3 -3 -4 -4 -5 -6 -6 -7 -7 -8 -9 -9 -9 -9 -9 -10 -10 -10 -10 -10 -10 -10 -10 -10 -10 -10 -11

GEFSCGP_850_meantemp_012.txt.gz
Temperature
17 20 20 19 18 18 18 18 18 19 18 17 18 18 18 16 15 15 14 13 13 13 13 12 12 12 12 12 12 12 13 13 13 13 13 13 12 12 11 10 10 10 10 10
19 19 17 17 17 17 17 18 19 18 17 16 17 17 17 15 14 13 12 12 12 12 12 12 12 12 12 11 11 11 12 12 13 13 13 13 12 11 10 10 10 10 10 10
18 17 16 17 17 17 18 17 17 17 17 16 15 18 16 15 13 12 11 11 11 10 11 11 11 11 11 11 10 11 11 12 12 12 12 12 11 10 10 10 10 10 10 10
17 16 16 17 16 16 17 16 15 15 16 17 15 17 18 14 13 12 10 10 10 9 9 9 9 10 10 11 11 10 10 11 11 12 12 11 10 10 10 9 9 9 9 9
16 15 15 15 15 14 15 15 15 14 15 15 15 15 18 14 12 11 10 9 9 9 8 8 8 8 8 9 10 9 9 10 10 11 11 10 10 10 9 9 9 9 9 9
15 14 14 14 14 13 14 15 16 13 14 15 15 15 17 13 11 10 10 9 9 8 8 8 7 7 7 7 7 8 8 9 9 9 10 10 10 10 9 9 9 8 8 8
16 15 14 13 15 15 15 15 16 16 16 16 14 14 15 10 9 9 9 9 8 8 8 7 7 6 6 6 6 6 7 7 8 8 9 9 9 9 9 9 8 8 8 8
15 16 13 13 13 13 13 14 14 14 15 16 15 14 14 10 9 9 9 9 8 7 7 7 6 6 6 5 5 5 6 6 7 7 8 8 9 9 9 9 9 8 8 8
14 14 13 11 11 12 13 13 12 12 13 13 14 14 12 10 10 10 9 9 8 7 6 6 6 5 5 5 4 4 4 5 6 7 7 8 8 8 8 8 8 8 8 7
12 12 13 11 12 11 12 12 12 12 12 13 14 15 14 10 9 10 9 8 7 6 6 5 5 5 4 4 3 3 3 4 5 6 6 6 7 7 7 8 7 7 7 7
10 11 12 12 12 11 11 11 11 12 11 11 11 13 10 9 9 9 8 7 7 6 5 5 5 5 4 3 2 2 2 2 3 4 4 5 5 5 6 6 6 6 6 5
10 10 11 11 10 9 10 10 10 10 11 11 10 11 10 10 9 8 7 7 6 6 5 5 5 5 4 3 2 1 1 1 0 1 2 2 3 3 4 4 4 4 4 4
9 10 11 12 10 9 9 9 9 9 8 8 8 10 12 10 8 7 7 6 6 5 5 5 4 4 4 2 1 0 0 -0 -1 -1 -1 -0 0 1 1 2 2 3 2 3
8 9 10 11 11 9 8 9 9 8 7 7 8 8 8 8 8 7 6 5 5 5 4 4 3 3 3 2 1 0 -0 -0 -1 -1 -1 -1 -1 -0 0 1 1 1 1 1
7 8 8 8 8 7 7 7 7 6 6 6 6 6 7 7 6 6 5 5 4 3 3 3 2 2 2 2 1 -0 -0 -0 -1 -1 -2 -2 -1 -1 -1 -1 -1 -1 -1 -1
6 6 5 6 5 5 5 6 6 5 6 6 5 6 7 5 5 4 4 3 3 2 2 1 1 0 0 0 0 -0 -1 -1 -1 -2 -3 -3 -3 -3 -3 -3 -3 -3 -3 -3
6 6 5 6 4 5 6 6 5 5 5 5 4 4 5 5 4 3 2 2 2 0 -0 -1 -1 -1 -1 -1 -1 -1 -1 -2 -2 -3 -4 -4 -4 -4 -4 -4 -4 -4 -4 -4
5 5 4 4 4 3 7 5 4 4 5 5 5 5 4 3 2 2 2 1 -0 -1 -1 -2 -2 -2 -2 -1 -1 -2 -2 -2 -3 -4 -5 -5 -5 -5 -5 -5 -5 -5 -5 -5
4 5 4 3 4 5 6 5 4 3 4 5 4 4 3 1 1 2 2 -1 -2 -2 -2 -2 -2 -2 -2 -2 -2 -3 -3 -4 -5 -5 -6 -6 -6 -6 -6 -6 -6 -6 -6 -6
3 3 4 2 2 3 6 4 3 3 4 5 3 2 0 -0 0 1 -1 -2 -2 -2 -2 -2 -2 -3 -3 -3 -4 -4 -4 -5 -6 -6 -7 -7 -7 -7 -7 -7 -7 -7 -7 -7
3 3 2 2 2 4 5 3 3 3 3 3 2 0 -1 -2 -2 -2 -2 -3 -3 -3 -3 -3 -3 -4 -4 -5 -5 -6 -6 -7 -7 -8 -8 -8 -8 -8 -8 -8 -8 -8 -8 -8
3 3 2 2 1 3 4 4 4 3 3 2 0 -2 -3 -3 -3 -3 -3 -4 -5 -5 -5 -5 -5 -5 -6 -6 -6 -7 -7 -8 -8 -9 -9 -9 -9 -9 -9 -9 -9 -9 -9 -9
3 4 4 3 4 5 4 3 3 2 1 -0 -2 -4 -4 -4 -4 -5 -5 -6 -7 -7 -7 -7 -7 -7 -7 -8 -8 -8 -9 -9 -10 -10 -10 -10 -10 -10 -10 -10 -10 -10 -10 -10
3 1 2 2 3 3 3 3 2 0 -1 -3 -4 -5 -5 -6 -6 -6 -7 -8 -8 -8 -8 -9 -9 -9 -9 -9 -10 -10 -10 -10 -11 -11 -11 -11 -11 -10 -10 -10 -10 -11 -11 -11
2 2 1 2 3 2 2 2 1 -1 -3 -4 -5 -6 -6 -7 -7 -8 -8 -9 -9 -9 -10 -10 -10 -11 -11 -11 -11 -11 -11 -11 -11 -11 -11 -11 -11 -11 -11 -11 -11 -11 -11 -11
0 1 2 3 3 2 2 1 -1 -3 -4 -6 -6 -7 -7 -8 -8 -9 -9 -10 -10 -10 -11 -11 -12 -12 -12 -12 -11 -11 -11 -11 -11 -11 -12 -12 -12 -12 -12 -11 -11 -11 -11 -11

GEFSCGP_850_meantemp_018.txt.gz
Temperature
21 20 18 18 19 19 19 19 19 20 20 19 18 18 16 15 14 13 12 12 11 11 10 9 9 9 10 10 11 11 12 12 12 12 12 12 12 12 12 12 12 12 12 11
20 18 18 19 19 19 19 18 19 19 19 18 17 17 15 13 13 12 12 11 10 10 10 9 9 8 8 8 8 8 9 10 10 10 11 11 11 11 11 11 12 12 11 11
19 18 19 19 19 18 18 17 16 16 17 18 17 16 13 13 12 12 11 10 10 10 9 9 8 8 8 7 7 7 7 7 8 8 9 9 10 10 10 11 11 11 11 10
19 18 18 18 17 16 16 17 16 16 15 15 17 15 12 12 11 11 11 10 10 9 9 9 8 8 7 7 6 6 6 6 7 7 7 8 8 9 9 10 10 11 10 10
17 16 16 17 16 16 16 16 15 15 15 14 15 15 14 12 11 10 10 10 10 9 9 8 8 7 7 7 6 6 6 6 6 6 6 7 7 8 8 9 10 10 10 10
17 17 16 15 16 17 16 16 16 16 15 14 16 15 13 11 10 10 10 10 9 9 8 8 8 7 7 6 6 6 6 5 5 5 5 5 6 7 7 8 9 9 10 9
18 16 16 16 15 16 15 14 14 15 14 15 16 16 11 10 10 10 10 10 9 8 8 8 7 7 7 6 6 6 5 5 5 4 4 4 4 5 6 7 8 9 9 9
16 16 15 14 14 13 14 14 12 12 13 14 15 13 8 11 11 11 10 9 8 8 7 7 7 6 6 6 5 5 5 5 4 3 3 3 3 3 5 6 7 8 8 8
14 15 15 14 14 13 13 13 14 12 12 12 14 8 10 11 10 10 9 8 8 7 7 6 6 5 5 5 4 4 4 4 3 2 2 1 1 2 3 4 6 6 7 7
13 12 15 14 14 14 14 13 12 12 11 11 12 13 9 10 8 8 8 7 7 6 6 5 5 4 4 3 3 3 3 3 2 2 1 0 0 0 1 2 3 4 5 5
13 12 13 15 15 12 12 13 13 12 11 10 10 11 10 8 7 7 7 6 6 5 5 4 4 3 2 2 1 1 1 1 1 1 0 -0 -1 -1 -1 0 1 2 3 3
12 11 11 13 12 12 12 12 11 9 10 9 8 9 10 8 7 7 6 6 5 4 4 3 2 1 1 0 0 0 0 0 -0 -0 -1 -1 -2 -2 -2 -1 -0 0 1 1
10 10 11 12 11 11 12 12 11 10 8 7 6 8 10 8 7 6 5 5 4 3 3 2 1 -0 -1 -1 -1 -1 -1 -1 -1 -1 -2 -2 -2 -3 -3 -2 -2 -1 -1 -0
9 9 10 10 10 10 10 9 9 8 6 6 6 7 7 6 5 5 4 4 3 2 1 0 -1 -1 -2 -2 -2 -2 -2 -2 -2 -2 -2 -3 -4 -4 -4 -4 -3 -3 -2 -2
9 8 9 10 10 10 9 8 8 7 7 5 6 6 6 5 4 4 3 3 1 0 -0 -1 -2 -3 -3 -3 -3 -3 -3 -3 -3 -3 -3 -4 -5 -5 -5 -4 -4 -4 -3 -3
9 7 8 8 9 9 8 8 8 7 6 6 5 5 5 5 4 3 2 1 -1 -1 -2 -3 -3 -4 -4 -4 -4 -4 -4 -4 -4 -5 -5 -6 -5 -5 -5 -5 -5 -4 -4 -4
8 7 6 5 8 7 7 6 5 5 5 5 3 3 4 3 3 2 1 -1 -2 -2 -3 -4 -5 -6 -6 -6 -6 -6 -6 -6 -6 -7 -7 -7 -7 -6 -6 -6 -5 -5 -5 -5
7 7 5 4 5 3 5 6 5 4 5 4 4 3 3 3 1 1 0 -2 -3 -4 -5 -6 -6 -7 -7 -7 -7 -7 -7 -7 -8 -8 -8 -8 -8 -7 -7 -6 -6 -6 -6 -6
6 6 5 3 3 4 5 4 4 3 3 4 3 3 2 1 0 1 -1 -4 -4 -5 -6 -7 -8 -8 -8 -8 -8 -8 -8 -8 -8 -9 -9 -9 -8 -8 -8 -8 -7 -7 -7 -7
5 5 4 3 2 2 4 4 5 4 3 4 3 2 1 -0 -1 -2 -3 -5 -5 -6 -7 -8 -8 -8 -8 -9 -9 -9 -9 -9 -9 -9 -9 -9 -9 -9 -9 -9 -9 -8 -8 -8
4 4 3 2 2 3 4 5 5 2 2 3 3 1 -0 -2 -3 -4 -5 -6 -6 -7 -8 -8 -9 -10 -10 -10 -10 -10 -10 -10 -10 -10 -9 -9 -9 -9 -9 -9 -9 -9 -9 -9
5 4 4 3 2 2 5 4 3 2 4 3 1 -0 -2 -3 -4 -5 -6 -7 -7 -8 -9 -9 -10 -10 -11 -11 -11 -11 -11 -10 -10 -10 -10 -10 -10 -10 -10 -10 -9 -9 -9 -9
4 4 3 3 3 5 5 4 4 4 3 1 -0 -2 -3 -4 -5 -6 -7 -8 -8 -9 -10 -10 -10 -11 -11 -11 -11 -11 -11 -11 -11 -10 -10 -10 -10 -10 -10 -10 -10 -10 -10 -10
5 3 3 3 4 5 5 4 4 3 2 0 -1 -3 -5 -6 -7 -7 -8 -9 -9 -10 -10 -11 -11 -11 -11 -11 -11 -12 -11 -11 -11 -11 -11 -11 -11 -11 -11 -11 -11 -11 -11 -11
4 4 3 3 4 5 4 3 3 2 0 -1 -3 -5 -6 -7 -7 -8 -9 -10 -10 -10 -10 -11 -12 -12 -12 -12 -12 -12 -12 -12 -12 -12 -13 -12 -12 -12 -12 -12 -12 -12 -11 -11
4 3 2 3 3 3 2 2 1 0 -1 -3 -4 -6 -7 -8 -8 -9 -10 -10 -10 -10 -11 -11 -12 -12 -12 -12 -13 -13 -13 -13 -13 -13 -13 -13 -13 -13 -13 -13 -13 -13 -12 -12

GEFSCGP_850_meantemp_024.txt.gz
Temperature
16 13 13 14 15 16 16 15 15 15 15 13 11 9 8 9 8 8 8 8 8 8 8 7 7 7 7 6 6 6 6 6 6 6 6 7 7 7 8 9 10 10 10 10
13 14 15 15 15 14 15 15 14 14 14 12 9 8 8 8 8 8 8 8 7 7 7 7 6 6 6 6 5 5 5 5 5 4 4 4 5 5 6 7 8 8 9 9
14 14 15 14 13 13 14 14 14 13 12 11 9 8 8 8 8 8 7 7 7 6 6 6 5 5 5 5 4 4 4 4 4 4 3 3 4 4 4 5 6 7 8 8
13 14 14 13 13 13 12 14 13 13 11 10 10 8 7 7 6 6 6 6 6 5 5 5 4 4 4 3 3 3 3 3 3 3 3 3 3 3 3 3 4 5 6 7
14 14 13 13 13 13 12 12 11 11 10 10 10 8 6 7 6 5 5 5 5 4 4 4 3 3 3 3 2 2 2 2 2 2 2 2 2 2 2 2 3 4 5 6
14 14 14 13 13 12 11 10 11 9 9 11 12 8 5 5 5 4 4 4 4 4 3 3 2 2 2 2 1 1 1 1 1 1 1 1 1 1 1 2 2 2 3 4
11 13 13 13 12 11 9 9 9 10 9 10 9 6 5 5 4 4 4 4 3 3 2 2 1 1 1 1 0 -0 -0 -0 -0 -0 -0 -0 -0 0 0 0 0 1 1 2
10 11 12 12 12 11 11 10 9 9 8 8 7 5 4 4 5 4 4 3 2 2 2 1 0 0 -0 -0 -1 -1 -1 -1 -1 -1 -1 -1 -1 -1 -0 -0 -1 -1 -1 0
9 10 11 12 12 12 11 10 10 8 7 7 6 5 4 4 3 3 3 2 2 1 1 -0 -1 -1 -1 -2 -2 -2 -2 -2 -2 -2 -2 -2 -1 -1 -1 -1 -1 -2 -2 -1
10 9 9 10 12 12 11 10 7 8 8 7 7 5 3 2 2 2 2 2 1 0 -1 -1 -2 -2 -3 -3 -3 -3 -3 -3 -3 -3 -3 -3 -3 -2 -3 -3 -3 -3 -3 -2
8 9 8 9 10 10 10 9 7 6 6 6 5 4 4 3 2 1 2 1 0 -1 -2 -2 -2 -3 -3 -4 -4 -5 -4 -5 -5 -5 -5 -4 -4 -4 -4 -4 -4 -4 -4 -3
7 6 7 8 9 9 10 8 7 6 5 4 3 3 3 3 3 2 1 0 -1 -2 -2 -3 -3 -4 -4 -5 -5 -6 -6 -6 -6 -6 -6 -6 -6 -5 -5 -5 -5 -5 -4 -4
7 6 7 9 9 7 8 7 7 6 4 3 3 3 3 2 2 1 0 -1 -2 -2 -3 -4 -4 -5 -6 -6 -6 -7 -7 -7 -7 -7 -7 -7 -7 -7 -6 -6 -6 -5 -5 -4
7 6 7 8 8 6 6 6 7 5 3 2 2 1 1 1 0 1 0 -1 -2 -3 -4 -5 -6 -7 -7 -7 -8 -8 -8 -8 -8 -8 -8 -8 -8 -8 -7 -7 -6 -6 -6 -5
6 5 6 6 6 5 5 4 5 4 3 2 2 1 1 -0 0 0 -1 -2 -3 -4 -5 -6 -7 -8 -8 -8 -8 -9 -9 -9 -9 -9 -9 -9 -9 -8 -8 -7 -7 -7 -6 -6
5 5 5 4 4 4 3 3 3 3 3 2 1 1 1 1 0 -0 -2 -4 -4 -5 -6 -7 -8 -9 -9 -10 -10 -10 -10 -10 -10 -10 -9 -9 -9 -9 -9 -8 -8 -8 -7 -7
4 4 4 2 2 3 1 2 3 3 2 2 0 0 1 -0 -0 -1 -3 -4 -5 -6 -7 -8 -9 -9 -10 -10 -11 -11 -10 -10 -10 -10 -10 -10 -10 -9 -9 -9 -9 -9 -8 -8
3 3 1 1 1 2 2 3 3 3 2 2 1 0 0 -0 -1 -1 -4 -4 -5 -7 -8 -8 -9 -10 -10 -11 -11 -11 -10 -10 -10 -10 -10 -10 -10 -10 -10 -10 -10 -9 -9 -9
3 2 0 -1 1 0 2 3 3 2 1 2 1 0 -0 -1 -1 -2 -4 -5 -6 -7 -8 -9 -10 -10 -11 -11 -11 -11 -11 -11 -10 -11 -11 -11 -11 -11 -11 -10 -10 -10 -10 -9
2 0 -1 -1 1 1 2 3 4 2 0 1 1 -1 -2 -3 -3 -3 -4 -6 -7 -8 -9 -9 -10 -10 -11 -11 -11 -11 -11 -11 -12 -12 -12 -12 -12 -12 -12 -11 -11 -11 -11 -10
2 1 -0 -0 -1 -1 2 3 2 -0 -0 2 1 -1 -2 -4 -4 -4 -6 -7 -8 -8 -9 -9 -10 -11 -11 -11 -11 -12 -12 -12 -12 -12 -12 -12 -13 -13 -13 -12 -12 -11 -11 -11
1 -0 -0 -1 -2 -1 3 3 1 1 2 1 -0 -1 -3 -4 -5 -6 -7 -8 -8 -9 -9 -9 -10 -11 -11 -12 -12 -12 -13 -13 -13 -13 -13 -13 -13 -13 -13 -13 -13 -12 -12 -12
0 0 -1 -1 -0 2 3 2 2 1 1 0 -1 -2 -3 -4 -6 -7 -8 -8 -9 -9 -10 -10 -11 -11 -11 -12 -13 -13 -13 -13 -13 -13 -14 -14 -14 -14 -14 -14 -14 -13 -13 -12
1 1 -1 0 0 2 2 2 2 1 1 -0 -1 -2 -4 -5 -7 -7 -8 -9 -9 -10 -10 -11 -11 -11 -12 -12 -13 -13 -14 -14 -14 -14 -14 -14 -15 -14 -14 -14 -14 -14 -14 -13
0 0 -1 -0 1 2 2 2 1 1 -0 -1 -2 -3 -5 -6 -7 -8 -9 -9 -10 -10 -11 -11 -11 -12 -12 -13 -13 -14 -14 -14 -14 -14 -14 -15 -15 -15 -15 -15 -15 -15 -14 -14
0 -1 -1 -1 1 1 2 1 1 -0 -1 -2 -3 -5 -6 -7 -8 -8 -9 -9 -10 -10 -11 -11 -11 -12 -12 -13 -13 -14 -14 -14 -14 -14 -15 -15 -15 -15 -15 -15 -15 -15 -15 -14

GEFSCGP_850_meantemp_030.txt.gz
Temperature
15 12 11 11 12 14 14 13 12 10 9 6 5 5 5 5 4 3 4 4 4 4 4 4 4 4 4 4 4 3 3 3 3 3 3 3 3 2 3 3 3 3 4 4
12 11 11 12 12 12 13 13 12 10 9 6 5 4 3 4 3 3 3 3 3 3 3 3 3 3 2 2 2 2 2 1 1 0 0 0 0 1 1 1 2 2 3 3
12 12 12 12 10 11 12 13 12 10 7 6 5 5 3 3 3 3 3 3 3 2 2 2 1 1 1 1 1 0 0 -0 -1 -1 -1 -1 -1 -1 -0 0 1 1 2 2
12 12 12 11 11 11 12 12 11 10 8 6 6 4 3 2 2 2 2 2 2 2 1 1 0 -0 -0 -1 -1 -1 -1 -1 -2 -2 -2 -3 -3 -3 -3 -2 -1 0 1 1
12 12 11 11 11 11 11 10 10 9 8 6 6 4 3 2 2 1 2 2 2 1 1 0 -0 -1 -2 -2 -2 -2 -2 -2 -3 -3 -3 -4 -4 -4 -4 -4 -3 -2 -1 -0
11 12 11 11 11 10 9 9 9 7 7 8 7 5 3 1 2 1 1 2 1 1 0 -1 -1 -2 -3 -3 -3 -4 -4 -4 -4 -4 -4 -5 -5 -5 -5 -5 -4 -4 -4 -3
11 12 10 11 11 9 8 8 9 9 9 8 4 3 1 2 2 2 2 1 1 0 -1 -2 -2 -3 -4 -4 -4 -5 -5 -5 -5 -5 -6 -6 -6 -6 -6 -6 -6 -6 -5 -5
10 11 10 9 10 10 9 9 9 9 8 6 4 2 1 2 2 2 2 1 0 -1 -2 -2 -3 -4 -5 -5 -5 -6 -6 -6 -6 -6 -6 -7 -7 -7 -7 -7 -7 -6 -6 -6
9 10 9 9 10 11 10 7 8 6 6 5 4 2 2 2 2 2 1 1 -0 -1 -2 -3 -4 -5 -5 -5 -6 -6 -7 -7 -7 -7 -7 -7 -8 -8 -7 -7 -7 -7 -6 -6
9 8 9 8 10 8 8 7 6 7 7 6 5 2 1 1 0 -0 0 0 -1 -2 -3 -4 -4 -5 -5 -6 -6 -7 -7 -8 -8 -8 -8 -9 -8 -8 -8 -7 -7 -7 -7 -6
8 8 7 8 8 8 8 7 5 4 5 5 4 4 1 1 1 -1 0 0 -1 -2 -3 -4 -5 -5 -6 -7 -7 -8 -8 -8 -9 -9 -9 -9 -9 -9 -8 -8 -8 -7 -7 -7
6 5 6 7 7 7 7 6 5 6 5 3 2 2 2 1 1 1 0 -0 -2 -3 -4 -4 -5 -6 -7 -7 -8 -8 -9 -9 -9 -9 -9 -9 -9 -9 -9 -9 -8 -8 -8 -7
6 6 7 9 8 6 5 5 5 4 3 2 1 2 1 1 1 1 0 -1 -2 -3 -4 -5 -6 -7 -8 -8 -9 -9 -9 -10 -10 -10 -10 -10 -9 -10 -9 -9 -9 -9 -9 -8
6 5 7 9 7 5 5 4 4 3 2 1 1 1 1 -0 -1 0 -0 -1 -3 -4 -5 -6 -7 -8 -8 -8 -9 -10 -10 -10 -10 -10 -10 -10 -10 -10 -10 -10 -10 -10 -9 -9
5 5 5 4 3 4 3 3 3 3 2 1 1 1 0 -1 -1 -0 -1 -2 -3 -5 -6 -7 -8 -8 -9 -9 -9 -10 -10 -10 -11 -11 -11 -11 -11 -11 -11 -11 -11 -10 -10 -10
3 4 4 4 2 3 3 2 3 2 2 1 1 -0 1 1 0 -1 -2 -3 -4 -6 -7 -8 -8 -9 -9 -10 -10 -10 -11 -11 -11 -11 -11 -12 -12 -12 -12 -12 -12 -11 -11 -10
2 3 4 3 2 3 2 2 2 2 2 1 0 -0 0 -1 -1 -2 -3 -4 -6 -7 -7 -8 -9 -9 -10 -10 -11 -11 -11 -12 -12 -12 -12 -12 -13 -13 -13 -13 -12 -12 -12 -11
2 2 1 1 2 4 3 2 2 2 1 0 0 -0 0 -1 -1 -2 -4 -5 -6 -7 -8 -9 -9 -9 -10 -11 -11 -11 -12 -12 -12 -12 -12 -13 -13 -13 -13 -13 -13 -13 -12 -12
2 2 0 -0 2 2 2 2 2 2 1 0 0 0 -0 -1 -2 -3 -4 -5 -7 -8 -9 -9 -9 -10 -10 -11 -11 -11 -12 -12 -12 -13 -13 -13 -14 -14 -14 -14 -14 -13 -13 -13
0 -1 -1 -1 3 4 3 2 2 1 -0 1 1 -0 -1 -2 -4 -4 -5 -6 -7 -8 -9 -9 -9 -10 -10 -11 -11 -12 -12 -13 -13 -13 -13 -14 -14 -14 -14 -14 -14 -14 -14 -13
2 0 -1 -1 -0 0 1 2 2 0 0 1 0 -0 -2 -3 -4 -5 -6 -7 -8 -8 -9 -9 -9 -10 -11 -11 -11 -12 -12 -13 -13 -13 -13 -13 -14 -14 -14 -14 -14 -14 -14 -14
1 -0 -1 -1 -1 0 2 1 -0 0 1 0 -0 -1 -3 -4 -5 -6 -7 -8 -8 -8 -9 -9 -9 -10 -10 -11 -12 -12 -12 -13 -13 -13 -13 -13 -13 -14 -14 -14 -14 -14 -14 -14
-0 0 -1 -0 1 1 2 2 1 1 1 -0 -1 -2 -4 -5 -6 -7 -7 -8 -8 -8 -9 -9 -9 -10 -10 -11 -12 -12 -12 -13 -13 -13 -13 -13 -13 -13 -14 -14 -14 -14 -14 -14
-1 -1 -2 -1 -1 1 1 1 1 1 -0 -1 -2 -3 -4 -6 -7 -7 -7 -8 -8 -8 -9 -9 -9 -10 -10 -10 -11 -12 -12 -13 -13 -13 -12 -13 -13 -13 -14 -14 -14 -15 -15 -15
-0 -2 -2 -1 -0 1 1 1 1 0 -1 -2 -3 -4 -5 -6 -7 -7 -7 -8 -8 -9 -9 -9 -10 -10 -10 -10 -11 -11 -12 -12 -12 -12 -12 -13 -14 -14 -14 -14 -15 -15 -15 -15
-1 -2 -1 -0 1 1 1 1 0 -0 -1 -2 -4 -5 -5 -6 -7 -7 -8 -8 -8 -9 -9 -9 -9 -10 -10 -10 -11 -11 -12 -12 -12 -12 -13 -14 -14 -14 -15 -15 -15 -14 -15 -14

GEFSCGP_850_meantemp_036.txt.gz
Temperature
17 19 18 16 16 18 18 18 16 12 10 10 9 7 7 6 6 6 6 5 5 4 3 2 1 1 0 -0 -0 -1 -1 -1 -1 -1 -2 -2 -2 -2 -2 -2 -2 -2 -2 -2
20 17 15 15 15 16 17 17 14 11 10 9 8 7 7 6 5 5 5 5 4 3 3 2 1 -0 -1 -2 -2 -2 -2 -2 -3 -3 -3 -4 -4 -4 -4 -3 -3 -3 -3 -3
18 15 14 15 16 17 16 17 15 13 9 9 8 7 6 6 5 5 5 4 4 3 2 1 0 -1 -2 -3 -3 -3 -3 -4 -4 -4 -4 -4 -4 -5 -5 -5 -4 -3 -4 -4
16 15 15 15 15 15 16 14 13 12 11 11 10 13 8 6 6 6 5 4 4 3 2 0 -1 -2 -3 -4 -4 -4 -4 -5 -5 -5 -6 -6 -6 -6 -6 -6 -6 -5 -5 -5
15 14 15 15 14 13 14 12 12 12 13 12 11 11 11 6 6 6 5 4 3 2 1 -0 -1 -3 -4 -4 -5 -5 -5 -6 -6 -6 -7 -7 -7 -7 -7 -7 -7 -6 -6 -6
14 13 13 13 13 12 12 12 12 12 13 14 13 12 12 7 6 6 5 4 3 2 1 -0 -2 -3 -4 -5 -6 -6 -6 -7 -7 -7 -7 -8 -8 -8 -8 -8 -8 -7 -7 -7
15 14 13 12 14 14 14 16 17 17 16 16 11 11 10 6 5 5 4 3 3 2 0 -1 -2 -4 -5 -6 -7 -7 -7 -7 -8 -8 -8 -8 -8 -9 -9 -9 -8 -8 -8 -8
17 16 13 12 13 13 13 15 16 15 16 16 11 11 8 6 4 4 3 3 2 1 -0 -2 -3 -4 -5 -6 -7 -8 -8 -8 -8 -9 -9 -9 -9 -9 -9 -9 -9 -9 -9 -9
16 15 12 11 11 12 14 13 12 13 13 12 13 9 5 5 5 4 4 3 2 1 -1 -2 -4 -5 -6 -7 -8 -8 -9 -9 -9 -9 -9 -9 -10 -10 -10 -10 -10 -10 -9 -9
13 14 13 11 12 11 12 12 12 13 13 14 15 11 9 5 5 5 4 3 1 0 -2 -3 -4 -5 -7 -7 -8 -8 -9 -9 -10 -10 -10 -10 -10 -10 -10 -10 -10 -10 -10 -10
11 13 14 12 12 12 12 11 11 12 12 12 12 12 7 5 4 4 3 2 0 -1 -2 -3 -4 -6 -7 -8 -8 -9 -9 -10 -10 -10 -10 -11 -11 -11 -11 -11 -11 -11 -11 -10
10 12 14 13 9 9 10 10 11 12 12 11 11 10 6 5 4 3 2 1 -0 -2 -3 -4 -5 -6 -7 -8 -9 -9 -10 -10 -10 -11 -11 -11 -11 -11 -11 -11 -12 -12 -11 -11
10 12 15 15 12 10 9 9 9 9 9 10 10 10 5 4 4 3 2 1 -1 -2 -3 -5 -6 -7 -8 -9 -9 -10 -10 -10 -11 -11 -11 -11 -12 -12 -12 -12 -12 -12 -12 -12
8 11 13 15 13 10 9 8 7 8 9 9 9 9 6 5 4 3 2 0 -1 -3 -4 -5 -6 -7 -8 -9 -10 -10 -10 -11 -11 -11 -11 -12 -12 -12 -13 -13 -13 -13 -12 -12
9 11 10 9 7 7 7 7 7 7 8 8 8 6 6 5 3 2 1 -1 -2 -4 -5 -6 -7 -8 -9 -9 -10 -10 -10 -11 -11 -11 -11 -12 -12 -12 -13 -13 -13 -13 -13 -13
8 9 8 9 6 6 6 6 6 6 6 6 6 6 5 3 2 2 0 -2 -3 -5 -6 -7 -8 -9 -9 -10 -10 -10 -10 -10 -11 -11 -11 -12 -12 -12 -13 -13 -13 -13 -13 -13
8 9 9 10 7 7 9 7 6 6 6 5 5 5 4 3 2 1 -2 -4 -5 -6 -7 -8 -9 -9 -10 -10 -10 -10 -10 -10 -10 -11 -11 -12 -12 -13 -13 -13 -13 -13 -14 -14
7 8 8 8 9 9 8 5 5 5 5 4 4 4 3 2 0 -2 -4 -5 -6 -7 -8 -9 -9 -9 -10 -10 -10 -9 -10 -10 -10 -11 -11 -12 -13 -13 -13 -14 -14 -14 -14 -14
5 7 7 7 10 11 6 4 4 5 5 4 3 3 2 0 0 -1 -5 -6 -7 -8 -9 -9 -9 -9 -9 -9 -9 -9 -10 -10 -10 -11 -12 -12 -13 -13 -14 -14 -14 -14 -14 -14
4 6 7 6 8 10 8 4 3 4 5 3 2 2 1 -0 1 -1 -5 -7 -7 -8 -8 -8 -8 -9 -9 -9 -9 -9 -10 -10 -11 -11 -12 -12 -13 -14 -14 -14 -14 -14 -14 -14
5 6 6 6 7 9 5 3 3 5 6 2 1 0 -1 -1 -2 -5 -6 -7 -7 -7 -7 -8 -8 -8 -9 -9 -9 -9 -10 -11 -11 -11 -12 -12 -13 -14 -14 -14 -14 -14 -14 -14
8 8 7 6 6 8 3 3 5 5 2 1 0 -1 -2 -3 -5 -6 -6 -7 -7 -7 -7 -7 -8 -8 -9 -9 -9 -10 -10 -10 -11 -11 -12 -13 -13 -14 -14 -14 -14 -14 -14 -14
7 8 9 8 8 4 3 3 2 2 1 -0 -1 -2 -3 -4 -5 -6 -7 -7 -7 -7 -7 -8 -8 -8 -8 -9 -9 -10 -10 -10 -11 -11 -12 -13 -14 -14 -14 -14 -14 -14 -14 -14
6 2 5 5 5 2 1 1 1 1 1 -0 -1 -2 -3 -4 -5 -6 -6 -7 -7 -7 -7 -8 -8 -8 -8 -9 -9 -10 -10 -10 -11 -12 -13 -13 -14 -14 -14 -14 -14 -14 -14 -14
8 4 4 5 3 1 0 0 1 1 0 -0 -1 -3 -4 -5 -5 -6 -6 -7 -7 -7 -7 -8 -8 -8 -8 -9 -9 -9 -10 -10 -11 -12 -13 -13 -14 -14 -14 -14 -14 -14 -14 -14
4 4 5 7 4 3 2 1 1 1 0 -1 -2 -3 -4 -5 -5 -6 -6 -7 -7 -7 -7 -7 -8 -8 -8 -9 -9 -9 -10 -10 -11 -12 -13 -13 -14 -14 -14 -14 -14 -15 -15 -14

GEFSCGP_850_meantemp_042.txt.gz
Temperature
22 20 17 17 18 19 20 20 19 14 14 14 13 10 9 9 9 9 8 8 7 6 5 4 3 2 1 -0 -1 -1 -2 -2 -3 -3 -3 -3 -4 -4 -4 -4 -5 -5 -5 -5
20 17 17 19 19 19 20 19 18 14 13 13 12 11 10 9 9 8 7 7 7 6 5 4 3 2 0 -1 -2 -2 -3 -4 -4 -4 -5 -5 -5 -5 -5 -5 -6 -6 -6 -6
18 17 18 19 19 18 19 18 16 16 13 12 12 11 9 9 8 7 7 7 6 5 4 4 2 1 -0 -2 -2 -3 -4 -5 -5 -5 -6 -6 -6 -6 -6 -6 -6 -6 -6 -6
17 18 18 19 17 16 18 15 15 15 13 12 11 11 8 8 8 8 8 7 6 5 4 3 2 0 -1 -2 -3 -4 -5 -5 -6 -6 -6 -7 -7 -7 -7 -7 -7 -7 -7 -7
16 16 17 17 16 15 16 15 14 14 14 13 12 11 9 8 8 8 8 7 6 5 4 3 1 -0 -1 -3 -4 -4 -5 -6 -6 -7 -7 -7 -8 -8 -8 -8 -8 -8 -8 -8
16 16 16 15 16 16 15 15 14 14 13 13 15 12 9 8 8 7 7 6 5 4 3 2 1 -1 -2 -3 -4 -5 -6 -6 -7 -7 -7 -8 -8 -8 -8 -8 -8 -8 -8 -8
16 16 16 16 16 16 16 15 15 14 13 14 15 13 8 7 7 6 6 6 5 4 2 1 -0 -2 -3 -4 -5 -5 -6 -6 -7 -7 -8 -8 -8 -9 -9 -9 -9 -9 -9 -9
19 16 15 15 14 13 16 15 13 13 13 14 13 11 6 7 7 6 6 6 4 3 2 0 -1 -2 -3 -4 -5 -6 -6 -7 -7 -8 -8 -8 -9 -9 -9 -10 -10 -10 -10 -10
16 16 14 14 14 14 15 14 14 12 13 13 13 7 7 7 7 7 6 5 4 2 1 -1 -2 -3 -4 -4 -5 -6 -7 -7 -7 -8 -8 -9 -9 -9 -10 -10 -10 -10 -10 -11
14 15 15 14 13 13 14 13 13 13 12 11 13 11 7 6 6 6 6 4 3 2 0 -1 -2 -3 -4 -5 -5 -6 -7 -7 -8 -8 -8 -9 -9 -10 -10 -10 -11 -11 -11 -11
14 14 15 14 15 14 14 14 14 13 12 11 10 9 7 6 6 5 5 4 2 1 -1 -2 -3 -4 -4 -5 -6 -6 -7 -7 -8 -8 -9 -9 -9 -10 -10 -11 -11 -11 -11 -11
13 12 14 13 11 12 13 12 12 11 11 12 10 7 7 6 6 6 5 3 2 0 -1 -2 -3 -4 -5 -6 -6 -7 -7 -8 -8 -9 -9 -9 -10 -10 -11 -11 -11 -12 -12 -12
11 12 14 13 11 11 12 12 11 11 10 9 8 8 7 6 6 5 4 2 1 -1 -2 -3 -4 -5 -5 -6 -7 -7 -7 -8 -8 -9 -9 -9 -10 -11 -11 -12 -12 -12 -12 -12
10 11 13 13 13 10 11 11 10 10 8 8 10 9 6 6 5 5 3 1 -0 -2 -3 -4 -5 -5 -6 -6 -7 -7 -8 -8 -9 -9 -9 -10 -10 -11 -12 -12 -12 -12 -13 -13
10 11 13 13 12 11 10 10 10 9 9 8 8 8 6 5 5 4 3 0 -1 -3 -4 -5 -5 -6 -6 -7 -7 -7 -8 -8 -9 -9 -10 -10 -11 -12 -12 -12 -13 -13 -13 -13
11 10 11 11 10 9 8 8 9 8 8 8 8 7 5 5 5 3 1 -1 -2 -4 -4 -5 -6 -6 -6 -7 -7 -8 -8 -8 -9 -10 -10 -11 -12 -12 -12 -13 -13 -13 -13 -13
11 10 10 9 11 10 9 10 8 8 8 8 7 6 5 5 4 2 -0 -2 -3 -4 -5 -5 -6 -6 -7 -7 -8 -8 -8 -9 -9 -10 -11 -12 -12 -12 -12 -13 -13 -13 -13 -13
10 10 9 8 9 9 10 7 9 9 9 8 7 6 5 4 2 -0 -2 -2 -4 -5 -5 -5 -6 -6 -7 -7 -8 -8 -8 -9 -10 -10 -11 -12 -12 -12 -13 -13 -13 -13 -13 -13
8 9 8 7 8 10 8 7 7 7 7 7 6 5 4 3 1 -2 -3 -3 -4 -5 -5 -6 -6 -6 -7 -7 -8 -8 -8 -9 -10 -11 -11 -12 -12 -13 -13 -13 -13 -13 -13 -13
7 7 7 7 7 8 9 7 7 6 5 6 5 4 3 2 -1 -2 -3 -4 -4 -5 -5 -5 -6 -6 -7 -7 -8 -8 -9 -10 -10 -11 -11 -12 -12 -13 -13 -13 -13 -13 -13 -13
7 6 6 6 6 8 6 6 6 5 5 5 4 3 2 1 -1 -2 -4 -4 -4 -5 -5 -5 -6 -6 -7 -7 -8 -8 -9 -10 -10 -11 -11 -12 -12 -13 -13 -13 -13 -13 -14 -13
9 8 7 7 7 7 6 4 4 5 4 4 3 2 1 -1 -2 -3 -4 -4 -4 -5 -5 -5 -6 -6 -7 -7 -8 -9 -9 -10 -10 -10 -11 -12 -12 -13 -13 -13 -13 -14 -14 -13
10 10 9 9 8 7 6 6 5 5 4 3 2 1 0 -1 -3 -3 -4 -4 -4 -5 -5 -6 -6 -6 -7 -8 -8 -9 -9 -9 -10 -10 -11 -12 -12 -13 -13 -13 -14 -14 -14 -13
10 9 8 8 7 6 6 5 4 4 3 2 2 1 -0 -2 -3 -3 -4 -4 -4 -5 -5 -6 -6 -6 -7 -7 -8 -9 -9 -9 -9 -10 -11 -12 -12 -13 -13 -13 -14 -14 -14 -13
11 6 6 7 7 6 5 4 3 3 2 2 1 0 -1 -2 -3 -3 -4 -4 -4 -5 -5 -6 -6 -6 -7 -7 -8 -9 -9 -9 -9 -10 -11 -11 -12 -13 -13 -13 -14 -14 -14 -13
9 8 7 7 8 6 5 4 3 2 2 2 1 -0 -1 -2 -3 -3 -4 -4 -5 -5 -5 -6 -6 -6 -7 -7 -8 -8 -8 -9 -9 -10 -10 -11 -12 -12 -13 -13 -13 -14 -14 -14

GEFSCGP_850_meantemp_048.txt.gz
Temperature
16 13 13 15 15 16 15 15 12 11 12 10 8 6 6 7 7 6 5 5 4 4 3 3 3 2 2 1 -0 -1 -2 -3 -3 -3 -3 -3 -4 -4 -5 -5 -6 -6 -6 -7
14 14 15 15 15 15 16 14 12 11 12 10 7 7 6 7 7 6 6 5 4 4 3 3 2 2 1 -0 -2 -2 -3 -3 -4 -4 -4 -5 -5 -5 -6 -6 -6 -7 -7 -8
15 15 15 15 14 14 14 14 13 12 11 9 8 7 6 6 6 6 5 5 4 4 3 2 2 1 -0 -1 -2 -3 -3 -4 -4 -5 -5 -5 -5 -5 -5 -6 -7 -7 -8 -8
14 14 15 14 14 14 14 14 13 12 10 9 9 7 5 5 5 5 4 4 4 3 2 2 1 -0 -1 -2 -3 -3 -4 -4 -5 -5 -6 -6 -6 -7 -7 -8 -8 -8 -8 -9
14 14 14 14 14 14 14 13 13 12 11 10 8 8 6 4 4 4 4 3 3 2 2 1 0 -1 -1 -2 -3 -4 -4 -4 -5 -6 -6 -7 -7 -8 -8 -8 -8 -9 -9 -9
14 14 14 14 14 14 13 12 12 9 9 10 9 7 7 3 4 3 3 3 2 2 1 1 -0 -1 -2 -3 -3 -4 -4 -5 -6 -6 -7 -7 -8 -8 -8 -9 -9 -10 -10 -10
14 14 14 14 13 12 11 11 10 11 10 10 9 7 6 4 4 4 3 2 2 1 1 0 -0 -2 -3 -3 -4 -4 -5 -5 -6 -7 -7 -8 -8 -9 -9 -10 -10 -11 -11 -11
14 13 13 12 12 12 12 12 11 11 10 9 9 8 4 4 5 4 3 2 2 1 0 -0 -2 -3 -3 -4 -4 -5 -5 -6 -6 -7 -7 -8 -9 -9 -10 -10 -11 -11 -12 -12
12 13 13 12 12 12 13 10 11 9 9 8 8 6 4 4 3 3 2 2 1 0 -0 -1 -2 -3 -4 -4 -5 -5 -6 -6 -7 -7 -8 -8 -9 -10 -10 -11 -11 -11 -12 -12
11 11 12 12 12 12 12 10 8 9 10 9 8 7 5 3 3 2 1 1 0 -0 -1 -2 -3 -4 -4 -5 -5 -6 -6 -7 -7 -8 -8 -9 -10 -10 -11 -11 -12 -12 -12 -12
11 11 11 12 12 12 12 12 10 8 7 8 7 8 5 3 2 1 1 0 -0 -1 -2 -3 -4 -4 -4 -5 -5 -6 -6 -7 -7 -8 -9 -10 -10 -11 -11 -12 -12 -13 -13 -13
8 9 10 11 10 10 11 11 9 9 9 6 5 6 4 3 3 2 1 -0 -1 -2 -3 -3 -4 -4 -4 -5 -5 -6 -7 -7 -8 -9 -9 -10 -10 -11 -12 -12 -12 -13 -13 -13
9 9 11 12 11 10 10 10 9 7 6 5 6 6 3 3 2 1 0 -1 -1 -2 -3 -3 -4 -4 -4 -5 -6 -6 -7 -8 -8 -9 -9 -10 -11 -12 -12 -12 -13 -13 -13 -13
9 8 10 12 12 10 10 9 9 7 6 5 5 6 3 2 0 -0 -1 -1 -2 -3 -3 -3 -4 -4 -5 -5 -6 -7 -7 -8 -9 -9 -10 -10 -11 -12 -12 -13 -13 -13 -13 -13
8 8 9 9 9 9 8 8 8 7 6 5 6 6 4 2 1 0 -1 -2 -2 -3 -3 -3 -4 -4 -5 -6 -6 -7 -8 -8 -9 -9 -10 -11 -12 -12 -13 -13 -13 -13 -13 -13
7 8 8 8 8 8 7 7 7 6 6 5 5 5 3 2 1 -1 -2 -2 -2 -3 -3 -4 -4 -5 -5 -6 -7 -7 -8 -8 -9 -9 -10 -11 -12 -12 -13 -13 -13 -13 -13 -13
7 7 8 7 6 7 8 8 6 6 6 6 5 5 1 -0 -1 -1 -2 -2 -2 -3 -3 -4 -4 -5 -6 -6 -7 -7 -8 -8 -8 -9 -10 -11 -12 -12 -13 -13 -13 -13 -13 -13
7 6 5 5 7 11 11 7 7 6 6 5 5 3 2 1 -0 -1 -2 -2 -2 -3 -3 -4 -5 -5 -6 -6 -7 -7 -8 -8 -9 -9 -10 -11 -12 -12 -13 -13 -13 -13 -13 -13
6 5 5 5 7 7 8 7 7 6 6 5 3 2 1 -0 -2 -3 -3 -3 -3 -3 -4 -4 -5 -5 -6 -6 -7 -7 -7 -8 -9 -9 -10 -11 -12 -12 -13 -13 -13 -13 -13 -13
4 4 4 4 7 9 10 7 7 6 6 5 4 1 -1 -2 -3 -2 -2 -3 -3 -3 -4 -4 -5 -5 -6 -6 -7 -7 -7 -8 -9 -9 -10 -11 -11 -12 -13 -13 -13 -13 -13 -13
5 4 4 4 5 6 7 6 6 6 8 6 5 3 1 0 -0 0 -1 -3 -3 -3 -4 -5 -5 -5 -6 -6 -6 -7 -7 -8 -9 -9 -10 -10 -11 -12 -12 -12 -13 -13 -13 -13
6 4 3 2 4 6 6 4 5 6 6 6 5 4 3 2 1 -0 -2 -3 -3 -4 -4 -4 -5 -5 -6 -6 -6 -7 -7 -8 -8 -9 -9 -10 -11 -11 -12 -12 -12 -13 -13 -13
6 6 5 5 8 9 8 9 8 7 7 6 5 4 3 2 0 -1 -2 -3 -3 -4 -4 -4 -5 -5 -6 -6 -6 -7 -7 -8 -8 -8 -9 -9 -10 -11 -11 -12 -12 -12 -13 -13
6 7 5 5 5 8 8 8 8 7 7 6 5 4 3 2 0 -1 -2 -3 -3 -4 -4 -4 -5 -5 -5 -6 -6 -7 -7 -8 -8 -8 -9 -9 -10 -10 -11 -11 -12 -12 -13 -13
6 5 5 5 5 6 7 7 7 6 6 5 4 3 2 1 -0 -1 -2 -2 -3 -3 -4 -4 -4 -5 -5 -6 -6 -7 -7 -7 -8 -8 -8 -9 -9 -10 -10 -10 -11 -12 -12 -13
6 6 6 8 10 8 10 10 7 6 5 4 3 2 1 1 -0 -1 -2 -2 -3 -3 -4 -4 -4 -5 -5 -5 -6 -6 -7 -7 -7 -8 -8 -9 -10 -10 -10 -10 -10 -10 -11 -12

GEFSCGP_850_meantemp_054.txt.gz
Temperature
15 12 12 13 13 14 14 13 12 11 8 7 6 6 4 4 4 4 4 4 4 3 3 2 1 0 -0 -1 -1 -1 -1 -1 -1 -2 -2 -3 -3 -4 -4 -5 -6 -6 -7 -7
13 13 14 13 13 13 13 13 12 10 9 8 6 6 4 4 4 4 4 4 4 3 2 1 0 -0 -1 -1 -1 -1 -1 -2 -3 -3 -4 -4 -5 -5 -5 -6 -6 -7 -7 -8
15 13 13 14 13 14 13 13 12 11 8 7 7 6 5 4 4 4 4 4 4 3 2 1 -0 -1 -1 -1 -1 -2 -2 -3 -3 -4 -4 -4 -4 -5 -5 -6 -7 -7 -8 -9
13 13 14 13 13 13 13 13 12 10 9 7 8 7 6 3 3 3 3 3 3 2 1 0 -0 -1 -1 -2 -2 -2 -3 -3 -4 -4 -5 -5 -6 -6 -7 -7 -8 -8 -9 -9
13 13 13 13 13 13 13 12 11 10 9 8 7 6 6 3 3 2 2 3 3 2 1 0 -1 -1 -2 -2 -2 -3 -3 -4 -4 -5 -5 -6 -6 -7 -7 -8 -8 -9 -9 -10
13 13 12 12 12 12 11 10 9 7 7 9 8 6 7 3 3 2 2 2 2 1 0 -0 -1 -1 -2 -2 -3 -3 -3 -4 -5 -5 -6 -6 -7 -7 -8 -9 -9 -10 -10 -11
14 13 12 12 13 11 11 11 10 11 10 10 8 7 7 5 3 3 2 2 2 1 0 -1 -1 -2 -2 -2 -3 -3 -4 -4 -5 -6 -6 -7 -7 -8 -9 -10 -10 -11 -11 -12
13 13 12 11 12 11 11 11 11 12 10 8 8 7 6 4 3 3 3 3 1 0 -0 -1 -1 -2 -2 -3 -3 -4 -4 -5 -6 -6 -7 -7 -8 -9 -10 -10 -11 -11 -12 -12
12 12 12 11 11 12 11 9 9 8 8 7 7 7 5 2 2 1 1 1 1 0 -1 -1 -2 -2 -3 -3 -4 -4 -5 -5 -6 -6 -7 -7 -8 -9 -10 -11 -11 -12 -12 -12
11 11 11 11 11 11 10 8 7 8 10 9 8 7 7 4 1 -0 -0 0 0 -0 -1 -2 -2 -3 -3 -4 -4 -5 -5 -6 -6 -7 -7 -8 -8 -9 -10 -11 -11 -12 -12 -12
10 10 10 11 11 11 10 9 7 6 7 8 7 9 7 5 2 1 0 1 1 -0 -1 -2 -2 -3 -3 -4 -5 -5 -6 -6 -6 -7 -7 -8 -9 -9 -10 -11 -11 -12 -12 -12
8 8 9 10 10 10 10 10 7 9 8 5 5 7 5 3 3 3 2 1 0 -1 -1 -2 -2 -3 -4 -4 -5 -5 -6 -6 -7 -7 -7 -8 -9 -9 -10 -11 -12 -12 -12 -12
8 8 10 12 10 9 9 9 7 6 6 4 5 8 3 2 2 2 2 1 0 -1 -2 -2 -3 -3 -4 -4 -5 -5 -6 -6 -7 -7 -7 -8 -9 -10 -10 -11 -11 -12 -12 -12
8 7 9 12 12 10 9 8 6 6 6 5 5 6 5 2 0 0 1 1 -0 -1 -2 -2 -3 -3 -4 -5 -5 -5 -6 -6 -7 -7 -8 -8 -9 -10 -10 -11 -11 -12 -12 -12
7 7 8 7 7 8 7 7 6 6 6 6 6 5 6 3 2 2 1 0 -1 -1 -2 -2 -3 -4 -4 -5 -5 -5 -6 -6 -7 -7 -8 -8 -9 -10 -10 -11 -11 -12 -12 -12
5 7 7 7 8 7 6 6 5 5 5 5 5 6 4 2 2 1 1 0 -1 -1 -2 -2 -3 -4 -4 -5 -5 -5 -6 -6 -7 -7 -8 -8 -9 -10 -10 -11 -11 -12 -12 -12
5 7 8 7 6 7 8 8 5 5 4 5 6 6 2 0 0 1 1 1 0 -0 -1 -2 -3 -4 -4 -5 -5 -5 -6 -6 -7 -7 -8 -8 -9 -9 -10 -11 -11 -11 -12 -12
5 6 5 5 7 11 12 8 6 6 6 4 4 4 2 3 2 3 3 2 0 -1 -1 -2 -3 -4 -4 -5 -5 -6 -6 -6 -7 -7 -8 -8 -9 -9 -10 -10 -11 -11 -12 -12
5 5 5 5 7 8 9 7 6 6 7 6 4 4 2 0 0 1 2 1 0 -1 -2 -2 -3 -4 -4 -4 -5 -5 -6 -6 -7 -7 -8 -8 -9 -9 -10 -10 -11 -11 -11 -12
3 3 4 5 8 9 11 7 7 7 7 8 6 3 -1 -1 -1 1 3 1 -0 -1 -2 -2 -3 -3 -4 -4 -5 -5 -6 -6 -7 -7 -8 -8 -9 -9 -10 -10 -10 -11 -11 -12
4 4 4 4 5 7 8 6 7 9 10 10 9 6 2 1 2 4 3 1 -0 -1 -2 -2 -3 -3 -4 -4 -5 -5 -6 -6 -7 -7 -8 -8 -9 -9 -9 -10 -10 -10 -11 -11
5 4 3 3 4 8 7 5 6 9 10 10 10 9 7 6 4 3 3 1 -0 -1 -2 -2 -3 -3 -4 -4 -5 -5 -5 -6 -6 -7 -7 -8 -8 -9 -9 -9 -10 -10 -10 -11
5 6 5 6 10 10 9 11 12 11 10 10 9 9 7 5 4 3 2 1 -0 -1 -2 -2 -3 -3 -4 -4 -4 -5 -5 -6 -6 -6 -7 -7 -7 -8 -9 -9 -9 -10 -10 -10
5 5 5 4 6 9 10 11 11 11 10 10 9 8 7 6 5 3 2 1 -0 -1 -2 -2 -3 -3 -4 -4 -4 -5 -5 -5 -6 -6 -6 -7 -7 -7 -8 -8 -9 -9 -10 -11
6 3 4 4 6 9 12 14 14 12 10 9 8 7 6 5 4 3 2 1 -0 -1 -2 -2 -3 -3 -3 -4 -4 -5 -5 -5 -5 -6 -6 -6 -7 -7 -7 -8 -8 -9 -9 -11
5 5 6 10 13 11 14 15 14 12 11 10 8 6 5 5 4 3 2 1 -0 -1 -2 -2 -3 -3 -3 -4 -4 -4 -5 -5 -5 -6 -6 -6 -6 -7 -7 -7 -7 -8 -9 -9

GEFSCGP_850_meantemp_060.txt.gz
Temperature
18 21 20 18 17 18 18 18 18 17 13 12 13 14 13 8 7 8 7 6 5 4 3 1 1 1 1 1 0 -0 -1 -1 -2 -2 -2 -2 -3 -4 -5 -5 -6 -6 -7 -8
21 19 17 16 15 16 17 18 18 15 12 12 14 13 13 10 8 8 8 7 6 5 2 1 1 1 1 0 0 -1 -1 -2 -2 -3 -3 -3 -4 -5 -6 -6 -7 -7 -8 -8
20 17 15 16 16 17 17 18 17 16 13 11 12 16 12 10 8 7 7 7 6 5 3 1 1 1 0 0 -0 -1 -2 -2 -3 -3 -3 -4 -5 -6 -6 -7 -7 -8 -8 -9
17 16 15 16 16 16 18 15 14 14 15 17 13 17 16 11 9 8 7 6 6 5 3 2 1 1 1 0 -1 -1 -2 -3 -3 -3 -4 -5 -5 -6 -7 -8 -8 -9 -9 -10
17 15 16 16 15 15 15 13 13 13 14 15 14 16 18 11 12 11 9 7 6 5 3 1 1 1 1 0 -1 -2 -2 -3 -3 -4 -4 -5 -6 -6 -7 -8 -9 -9 -10 -10
15 14 14 15 14 13 13 14 13 13 15 17 16 16 18 15 15 13 11 8 6 4 2 1 1 1 0 -0 -1 -2 -2 -3 -3 -4 -5 -5 -6 -7 -8 -8 -9 -10 -10 -10
16 15 14 13 15 14 15 17 18 18 18 18 13 14 17 15 12 11 10 8 5 3 2 1 1 1 0 -1 -1 -2 -3 -3 -4 -4 -5 -6 -6 -7 -8 -9 -10 -10 -10 -10
18 18 15 14 15 15 15 16 17 17 18 18 14 15 18 12 8 7 6 5 4 2 1 1 1 1 -0 -1 -2 -2 -3 -3 -4 -5 -5 -6 -7 -7 -8 -9 -10 -10 -11 -11
18 17 14 13 13 14 15 15 14 16 15 15 17 17 17 9 9 7 6 4 3 2 1 1 1 0 -0 -1 -2 -2 -3 -4 -4 -5 -5 -6 -7 -8 -8 -9 -9 -10 -10 -11
15 16 14 13 13 12 14 14 15 15 16 16 18 17 18 16 14 11 7 5 3 2 1 0 0 0 -0 -1 -2 -2 -3 -4 -4 -5 -6 -6 -7 -8 -8 -9 -10 -10 -10 -11
13 15 15 14 14 15 13 13 14 15 15 16 16 18 17 16 14 12 10 6 4 2 1 1 0 -0 -1 -1 -2 -3 -3 -4 -5 -5 -6 -6 -7 -8 -8 -9 -10 -10 -10 -11
12 14 16 16 12 12 14 14 14 16 15 14 15 17 15 13 11 10 9 6 4 2 1 1 0 -0 -1 -1 -2 -3 -3 -4 -5 -5 -6 -6 -7 -8 -8 -9 -10 -10 -10 -11
11 14 17 17 14 12 12 12 12 13 14 14 14 17 13 10 9 8 7 5 3 2 1 0 0 -0 -1 -2 -2 -3 -4 -4 -5 -5 -6 -6 -7 -8 -8 -9 -9 -10 -10 -11
10 13 16 18 17 15 13 12 11 12 14 14 14 16 17 15 12 10 7 5 3 1 1 0 0 -1 -1 -2 -2 -3 -4 -4 -5 -5 -6 -7 -7 -8 -8 -9 -9 -10 -10 -11
10 13 13 13 12 11 11 12 11 11 14 14 15 15 16 16 14 11 7 4 2 1 1 1 0 -1 -1 -2 -2 -3 -4 -4 -5 -5 -6 -6 -7 -7 -8 -8 -9 -9 -10 -10
10 12 11 12 10 9 10 11 10 10 11 12 12 13 15 13 8 7 6 3 2 2 2 1 0 -0 -1 -2 -2 -3 -4 -4 -5 -5 -6 -6 -7 -7 -8 -8 -9 -9 -10 -10
10 11 13 15 12 11 14 14 10 10 10 11 12 15 14 10 8 8 6 4 4 3 2 2 1 -0 -1 -2 -2 -3 -4 -4 -5 -5 -6 -6 -7 -7 -7 -8 -9 -9 -10 -10
10 11 12 12 14 14 18 12 11 11 11 10 11 13 12 10 8 6 6 6 5 4 3 2 1 -0 -1 -2 -2 -3 -4 -4 -5 -5 -6 -6 -6 -7 -7 -8 -8 -9 -9 -10
8 11 11 11 14 15 16 10 9 10 13 13 11 11 11 6 4 7 8 7 6 5 3 2 1 -0 -1 -2 -2 -3 -3 -4 -5 -5 -5 -6 -6 -6 -7 -7 -8 -8 -9 -9
6 8 10 9 12 14 18 10 8 10 13 14 11 11 9 4 9 11 9 8 6 4 3 1 0 -0 -1 -2 -2 -3 -3 -4 -4 -5 -5 -6 -6 -6 -7 -7 -8 -8 -8 -9
7 8 9 10 11 14 14 7 8 13 18 15 13 12 8 6 9 9 8 7 5 4 2 1 0 -0 -1 -2 -2 -3 -3 -4 -4 -5 -5 -5 -6 -6 -6 -7 -7 -8 -8 -8
10 9 9 10 10 13 10 7 11 16 16 15 14 13 12 11 10 8 7 6 5 4 2 1 0 -1 -1 -2 -2 -3 -3 -4 -4 -4 -5 -5 -5 -6 -6 -6 -7 -7 -8 -8
11 12 12 11 15 15 11 13 16 15 15 15 14 13 12 10 9 8 7 6 5 4 2 1 0 -1 -1 -2 -2 -3 -3 -4 -4 -4 -5 -5 -5 -6 -6 -6 -6 -7 -7 -8
10 8 10 9 11 12 11 13 15 15 15 15 14 12 11 10 10 9 7 6 5 3 2 1 0 -1 -1 -1 -2 -3 -3 -3 -4 -4 -5 -5 -5 -5 -6 -6 -6 -7 -7 -8
13 8 9 10 12 12 14 17 18 18 17 16 15 14 12 11 10 9 8 6 5 4 3 1 0 -0 -1 -1 -2 -2 -3 -3 -4 -4 -4 -5 -5 -5 -5 -6 -6 -6 -7 -8
9 9 11 15 17 15 17 18 17 17 16 16 15 14 13 11 10 9 8 6 5 4 3 2 1 -0 -1 -1 -2 -2 -3 -3 -4 -4 -4 -5 -5 -5 -5 -5 -5 -6 -7 -7

GEFSCGP_850_meantemp_066.txt.gz
Temperature
22 21 20 19 19 19 19 20 19 19 16 15 15 15 15 11 11 11 11 10 9 9 8 6 5 4 3 2 2 1 2 2 1 1 1 0 -0 -1 -2 -3 -4 -4 -5 -6
21 20 19 19 19 18 19 19 19 18 16 15 15 15 16 13 11 11 11 11 10 10 8 7 5 4 3 2 2 1 1 1 1 1 0 -0 -1 -2 -3 -4 -4 -5 -6 -6
21 18 18 19 19 19 19 19 18 17 18 16 14 15 16 14 12 11 11 11 11 10 9 8 6 4 3 2 2 1 1 1 1 0 -0 -1 -2 -2 -3 -4 -4 -5 -6 -7
20 18 18 18 19 18 18 17 17 16 15 16 16 15 14 13 12 12 11 11 11 11 10 9 6 4 3 2 2 1 1 1 1 0 -0 -1 -2 -3 -3 -4 -5 -6 -6 -7
20 18 18 18 18 17 18 16 16 15 15 15 16 15 16 14 13 12 12 12 11 11 10 9 7 5 3 2 2 1 1 1 0 -0 -1 -2 -2 -3 -4 -5 -5 -6 -6 -7
18 17 18 17 17 16 16 16 15 15 15 15 18 17 17 15 16 15 14 13 12 11 10 9 7 5 3 2 2 1 1 0 0 -0 -1 -2 -3 -3 -4 -5 -5 -6 -7 -7
18 17 17 16 16 16 16 16 16 16 14 17 17 17 17 16 16 16 15 14 13 11 10 8 7 5 3 2 2 1 1 0 -0 -1 -1 -2 -3 -4 -4 -5 -6 -6 -7 -8
20 18 17 17 17 16 17 17 16 16 17 17 16 16 17 15 15 15 14 13 12 11 9 8 6 5 3 2 2 1 1 0 -0 -1 -2 -2 -3 -4 -4 -5 -6 -7 -7 -8
18 18 16 16 16 15 17 17 16 15 16 16 17 18 15 14 12 12 12 11 11 10 9 7 6 4 3 2 2 1 1 0 -0 -1 -2 -2 -3 -4 -4 -5 -6 -7 -7 -8
17 17 16 15 14 14 15 15 15 15 15 15 17 19 17 13 13 12 12 12 11 10 8 7 5 4 3 2 1 1 0 -0 -1 -1 -2 -2 -3 -4 -5 -5 -6 -7 -7 -8
16 16 16 15 14 16 14 15 15 15 15 14 14 16 19 17 17 15 13 14 12 11 9 7 5 3 2 1 1 1 0 -0 -1 -1 -2 -2 -3 -4 -4 -5 -6 -7 -7 -8
16 15 16 16 15 14 16 16 16 14 15 15 13 15 18 17 17 16 15 14 13 11 9 7 5 3 2 1 1 1 0 -0 -1 -1 -2 -2 -3 -4 -4 -5 -6 -7 -7 -8
14 14 15 16 14 13 14 15 15 15 14 13 13 15 16 15 15 15 15 14 12 10 8 6 4 3 2 1 1 1 0 -0 -1 -1 -2 -2 -3 -4 -4 -5 -6 -6 -7 -7
12 13 14 16 16 15 14 14 14 13 12 12 13 15 16 15 14 15 14 13 12 10 8 6 4 3 2 1 1 1 0 -0 -1 -1 -2 -2 -3 -4 -4 -5 -5 -6 -7 -7
11 12 14 15 16 15 14 14 13 12 13 13 14 15 16 16 15 16 15 14 12 10 8 6 5 3 2 1 1 1 0 -0 -1 -1 -2 -2 -3 -3 -4 -5 -5 -6 -6 -7
11 11 13 13 15 14 12 12 13 13 13 13 13 14 15 16 16 15 14 13 12 10 9 7 5 3 2 2 1 1 0 -0 -1 -1 -2 -2 -3 -3 -4 -4 -5 -6 -6 -7
11 11 12 12 13 12 12 13 12 12 12 12 12 13 14 14 14 14 14 13 12 11 9 8 6 5 3 2 2 1 1 -0 -1 -1 -2 -2 -3 -3 -4 -4 -5 -5 -6 -7
12 12 11 10 12 12 15 15 15 13 13 12 12 13 13 14 15 15 15 14 13 12 10 8 7 5 4 3 2 1 0 -0 -1 -1 -2 -2 -3 -3 -4 -4 -5 -5 -6 -7
9 11 10 10 10 12 16 13 13 12 12 13 13 13 14 15 12 13 16 15 14 12 11 9 8 6 4 3 2 1 1 -0 -1 -1 -2 -2 -3 -3 -3 -4 -4 -5 -6 -6
8 9 9 9 9 11 15 13 13 13 12 15 14 13 14 12 9 12 15 14 13 11 10 9 7 5 4 3 2 1 1 -0 -1 -1 -2 -2 -3 -3 -3 -4 -4 -5 -6 -6
7 7 7 7 8 10 14 11 12 13 14 18 18 17 16 12 13 15 14 13 12 11 10 8 7 6 5 4 3 1 1 0 -0 -1 -2 -2 -3 -3 -3 -4 -4 -5 -5 -6
8 7 7 8 8 10 11 10 11 14 18 18 18 17 16 16 15 14 13 13 12 10 9 8 7 6 5 4 3 2 1 0 -1 -1 -2 -2 -3 -3 -3 -4 -4 -5 -6 -6
11 11 10 10 12 15 13 14 17 17 17 18 18 17 16 15 15 14 13 12 11 10 9 8 7 5 4 4 3 2 1 -0 -1 -1 -2 -2 -3 -3 -3 -4 -4 -5 -5 -6
12 13 12 11 12 14 15 15 16 17 17 18 18 17 16 15 15 14 13 12 11 10 9 8 6 5 4 4 3 2 1 -0 -1 -1 -2 -2 -3 -3 -3 -4 -4 -5 -5 -6
14 11 10 11 12 14 16 17 18 18 18 18 18 17 16 15 15 14 13 13 12 10 9 8 7 6 5 4 3 2 1 -0 -1 -1 -2 -2 -3 -3 -3 -4 -4 -5 -5 -6
13 11 11 14 15 14 16 18 18 17 17 17 17 16 16 15 15 14 13 13 11 10 9 8 7 6 5 4 3 2 1 -0 -1 -1 -2 -2 -3 -3 -3 -4 -4 -5 -5 -6

GEFSCGP_850_meantemp_072.txt.gz
Temperature
18 15 14 14 13 15 16 16 15 15 13 10 10 11 11 10 9 8 9 9 10 11 11 9 8 7 7 6 6 5 5 5 4 3 3 2 2 1 1 0 -1 -1 -2 -2
15 15 16 16 16 16 16 16 15 14 13 12 10 11 11 10 9 9 9 10 11 11 10 9 8 8 7 7 6 6 5 5 4 3 3 2 2 1 1 -0 -1 -1 -2 -3
17 16 17 17 16 16 16 15 15 15 14 13 11 11 12 11 10 10 10 11 12 12 12 11 9 8 8 7 7 6 6 5 4 3 3 2 2 1 0 -0 -1 -2 -2 -3
16 16 16 16 16 16 15 15 15 15 13 11 12 11 12 12 10 8 10 10 12 13 12 12 11 10 9 9 8 7 6 5 4 3 3 2 2 1 0 -0 -1 -2 -3 -3
16 16 16 16 16 16 15 15 14 14 13 11 11 11 12 12 11 10 10 12 14 14 14 13 12 12 11 9 8 7 6 5 4 3 3 2 1 1 0 -0 -1 -2 -3 -3
15 16 16 15 15 15 14 13 12 10 10 11 11 10 11 10 11 12 12 15 16 16 15 14 13 12 11 10 8 7 6 5 4 3 3 2 1 1 0 -1 -1 -2 -3 -3
15 15 15 15 15 14 13 12 12 13 11 11 12 11 12 13 11 12 14 17 18 17 16 14 13 12 11 10 9 8 6 5 4 3 3 2 1 1 -0 -1 -1 -2 -3 -3
14 14 14 14 14 14 13 12 12 13 12 11 12 12 13 13 13 14 15 17 18 17 16 15 14 13 12 11 10 8 7 6 4 3 3 2 1 0 -0 -1 -1 -2 -3 -4
14 14 14 14 14 14 14 12 12 11 11 11 11 11 12 12 12 12 14 15 17 17 16 16 15 14 12 11 10 9 7 6 5 4 3 2 1 0 -0 -1 -2 -2 -3 -4
14 13 13 13 13 13 13 12 10 11 11 11 11 11 12 14 12 11 11 13 16 17 16 15 15 14 13 11 10 8 7 6 5 3 3 2 1 0 -0 -1 -2 -2 -3 -4
13 13 13 12 12 12 12 12 11 10 9 10 10 13 12 13 13 12 13 16 17 17 17 16 15 14 13 11 10 8 7 5 4 3 2 2 1 0 -1 -1 -2 -2 -3 -4
12 10 11 11 12 12 11 11 10 11 11 9 8 13 13 12 12 13 15 17 18 18 17 16 15 14 12 11 10 8 7 5 4 3 2 2 1 -0 -1 -1 -2 -3 -3 -4
12 11 12 13 13 12 12 11 10 10 10 8 9 13 13 12 12 14 15 17 17 17 16 16 15 14 13 11 10 8 7 6 4 3 2 1 1 -0 -1 -1 -2 -3 -3 -4
11 10 11 13 13 13 12 12 11 10 10 9 10 13 15 14 12 13 15 16 16 16 16 15 15 14 13 12 10 9 7 6 4 3 2 1 1 -0 -1 -1 -2 -3 -3 -4
9 9 9 9 10 10 11 12 11 11 11 11 13 12 15 15 13 14 16 16 16 16 16 16 15 14 13 12 10 9 7 5 4 3 2 2 1 -0 -1 -2 -2 -3 -3 -4
7 8 9 9 10 9 9 11 11 11 11 12 12 13 15 15 14 14 15 15 15 16 16 16 15 14 13 12 11 9 8 6 4 3 2 2 0 -0 -1 -2 -2 -3 -3 -4
6 7 8 8 9 10 10 12 11 10 9 10 11 13 13 12 11 13 15 15 15 16 16 16 15 15 14 13 11 10 9 6 4 3 2 1 0 -0 -1 -2 -2 -3 -3 -4
6 7 7 6 9 10 12 12 12 10 10 10 11 11 11 11 14 15 15 16 16 17 17 16 15 15 14 13 11 10 8 6 5 3 2 1 0 -0 -1 -2 -2 -3 -3 -4
7 8 7 6 7 8 11 11 11 10 10 11 11 11 12 13 12 14 18 18 17 17 16 15 15 14 13 12 11 10 8 6 4 3 2 1 0 -0 -1 -1 -2 -3 -3 -4
6 6 6 5 6 8 12 13 12 12 11 13 11 11 12 11 10 13 18 17 17 16 16 15 14 13 13 12 11 9 8 6 5 4 3 2 1 -0 -1 -1 -2 -3 -3 -4
5 5 5 6 5 8 10 11 12 12 13 16 15 15 14 11 13 16 17 16 16 16 15 15 14 13 12 11 10 9 8 7 6 5 3 1 0 -0 -1 -2 -2 -3 -3 -4
6 5 4 5 5 8 10 9 10 13 16 16 16 16 15 15 15 15 16 16 15 15 14 14 13 13 12 11 10 9 8 8 6 4 2 1 0 -0 -1 -2 -2 -3 -3 -4
7 8 8 7 10 12 12 13 15 15 14 16 15 15 15 14 14 15 15 15 14 14 14 13 13 12 11 10 9 9 8 7 5 3 2 1 0 -1 -1 -2 -2 -3 -3 -4
7 7 7 6 8 10 12 13 14 15 15 15 15 14 14 13 13 13 13 13 13 13 13 12 12 11 11 10 9 8 7 6 4 3 2 1 0 -1 -1 -2 -2 -3 -3 -4
8 8 6 8 9 10 12 14 14 14 14 14 13 13 13 12 12 12 12 12 12 12 12 11 11 11 11 10 9 8 6 5 4 3 2 1 0 -1 -1 -2 -2 -2 -3 -4
8 9 9 11 12 11 12 13 13 12 12 12 12 12 11 11 11 11 11 11 11 11 11 11 11 10 10 9 8 7 6 5 3 2 1 1 -0 -1 -1 -2 -2 -3 -3 -4

GEFSCGP_850_meantemp_078.txt.gz
Temperature
16 14 13 13 12 14 15 14 12 12 12 9 9 10 12 13 10 9 10 12 13 15 16 14 13 12 11 10 9 8 7 7 6 5 5 5 5 4 4 3 3 2 1 1
14 13 13 14 13 13 13 13 12 11 11 10 8 10 12 11 10 10 10 11 14 15 16 15 14 13 12 11 10 9 8 7 7 6 5 5 4 4 3 3 2 2 1 1
15 15 15 14 14 14 13 13 12 12 12 11 9 11 11 11 10 10 11 12 13 15 16 16 15 14 13 12 12 11 10 8 7 6 5 4 4 4 3 3 3 2 1 1
14 13 15 15 14 14 12 13 12 13 12 10 11 11 13 11 10 9 11 13 15 17 17 17 16 15 15 15 13 12 11 9 8 7 6 5 5 5 4 4 3 2 1 1
14 15 14 14 14 13 13 13 13 12 11 10 9 10 12 10 12 12 12 15 18 19 18 18 18 17 16 15 14 13 11 10 9 8 7 6 5 5 4 3 3 2 1 1
13 14 14 14 14 13 13 12 10 8 8 10 10 8 11 11 12 13 13 16 18 19 19 19 18 17 17 16 15 13 12 11 10 9 7 6 5 5 4 3 3 2 1 1
13 13 14 14 14 13 13 12 11 12 11 11 10 9 11 12 11 11 12 16 17 18 19 19 19 18 18 17 16 15 14 13 11 10 8 7 6 5 4 4 3 2 1 1
13 13 14 13 13 13 12 12 12 12 11 10 10 9 12 12 12 13 13 15 18 19 19 19 19 18 18 17 16 16 15 14 12 11 10 8 7 5 4 4 3 2 2 1
13 13 13 13 13 12 12 11 11 10 10 9 9 9 11 12 12 12 13 15 17 19 19 19 19 18 18 17 17 16 15 14 13 12 10 9 7 6 5 4 3 2 2 1
13 12 12 12 12 12 12 10 8 10 10 10 10 10 12 14 15 13 12 14 17 18 19 19 19 18 18 17 16 16 15 14 13 12 11 9 8 6 5 4 3 2 2 1
12 12 11 11 11 11 10 10 10 8 8 9 9 12 12 12 13 12 12 15 16 18 18 18 18 18 17 17 16 16 15 14 13 12 11 9 8 7 5 4 3 2 1 0
10 9 10 11 11 10 10 10 9 10 10 7 7 11 13 11 11 11 12 16 17 18 18 18 17 17 17 17 16 16 15 14 14 12 11 9 8 6 5 4 3 2 1 0
9 10 11 12 12 10 10 9 8 9 8 6 7 12 13 11 12 13 14 16 16 16 16 16 16 17 16 16 16 15 15 14 13 12 11 9 8 6 5 4 3 2 1 0
10 9 10 12 13 12 11 10 8 8 8 7 8 12 14 14 14 14 14 15 15 15 15 16 16 16 16 16 16 15 15 14 13 12 10 9 8 7 6 4 3 2 1 0
8 9 8 8 9 9 9 10 9 8 9 10 11 12 14 15 14 13 13 14 14 15 15 16 15 15 15 15 15 15 14 14 13 12 11 10 9 7 5 4 3 2 1 -0
7 8 8 8 9 8 7 9 10 9 9 9 10 11 13 13 12 12 13 13 13 14 15 15 15 15 15 15 15 14 14 14 13 12 11 10 8 7 5 4 3 1 1 -0
5 6 7 7 8 8 9 10 10 9 8 8 9 11 11 10 10 12 13 13 13 14 14 14 14 14 14 14 14 14 13 13 12 12 11 10 8 7 5 4 2 1 1 -0
5 5 6 5 8 8 11 11 10 10 9 8 9 10 10 10 12 13 14 13 13 13 13 13 13 13 13 13 13 13 13 12 12 11 11 10 8 7 5 3 2 1 1 -0
5 6 6 5 6 7 9 10 9 9 9 10 9 9 10 11 10 12 14 13 12 12 12 12 12 12 12 12 12 12 12 12 11 11 11 10 8 6 5 3 3 1 0 -1
4 5 5 4 5 7 10 11 11 10 9 11 10 10 10 9 7 9 12 11 11 11 11 11 11 11 11 12 11 11 11 11 11 10 10 8 7 5 4 3 2 1 0 -1
4 4 4 4 4 7 8 9 10 10 11 12 12 11 10 8 9 10 10 10 10 10 10 10 10 10 10 10 10 10 10 10 10 8 8 7 6 5 4 2 1 0 -1 -1
5 4 3 4 4 7 8 8 9 10 12 12 11 11 10 10 10 9 9 9 9 9 9 9 9 9 9 9 9 9 9 9 8 7 7 6 5 4 2 1 0 -1 -1 -2
5 6 6 5 8 10 10 11 12 12 11 10 10 10 9 9 8 8 8 8 8 8 8 8 8 8 9 9 8 8 8 7 7 7 6 5 4 3 2 1 -0 -1 -2 -2
5 5 5 5 6 8 10 11 11 11 10 10 9 9 8 7 7 7 7 7 7 7 7 7 7 7 8 8 7 7 7 6 6 6 5 4 3 2 0 -1 -1 -2 -2 -2
6 6 4 6 7 8 9 10 10 9 9 8 8 7 7 6 6 6 6 6 6 6 6 6 6 6 6 6 6 6 6 5 5 4 4 3 1 0 -1 -1 -1 -2 -2 -1
6 7 7 8 9 8 8 9 8 8 7 7 6 6 6 6 5 5 5 5 5 5 5 5 5 5 5 5 5 5 5 4 4 3 3 1 0 -1 -1 -2 -2 -3 -3 -3

GEFSCGP_850_meantemp_084.txt.gz
Temperature
17 19 20 20 20 19 19 18 19 20 19 16 17 18 20 20 19 18 18 17 17 16 15 14 15 15 15 14 13 13 12 11 10 9 8 8 7 7 6 6 6 5 5 4
19 20 20 18 16 16 17 18 19 20 17 15 17 18 20 20 19 18 17 17 16 16 15 13 14 15 15 15 14 14 13 12 11 10 9 9 8 7 7 6 6 5 5 4
19 19 16 16 17 17 18 18 19 18 17 17 15 19 22 22 18 17 16 15 15 14 14 13 13 15 16 15 15 15 14 13 12 11 10 8 8 7 7 7 7 6 5 5
18 17 16 16 17 17 18 17 16 16 16 18 16 17 21 21 20 21 20 18 16 15 14 14 14 15 16 16 16 15 15 14 13 12 11 10 9 9 9 8 8 7 6 5
19 17 16 17 17 16 17 15 15 15 15 16 16 16 20 21 22 22 21 19 17 15 15 15 15 16 17 16 16 16 15 14 14 13 12 11 10 10 9 7 7 7 7 6
17 15 16 16 15 15 15 15 15 14 16 17 17 17 20 23 21 20 20 18 17 15 15 16 17 17 17 17 17 16 16 15 14 14 13 12 12 11 9 8 7 7 7 6
18 17 15 15 16 15 16 17 19 19 19 19 15 15 19 21 20 18 17 16 16 15 16 16 17 17 17 17 17 17 16 16 15 15 14 14 13 12 10 9 7 7 7 7
17 19 16 15 16 16 16 16 18 17 18 18 16 16 20 21 19 17 16 16 16 16 16 16 16 17 17 17 17 17 17 16 16 15 15 15 14 12 11 10 8 7 7 7
18 18 15 14 14 15 16 16 15 16 16 15 17 18 19 20 20 20 19 17 16 16 15 15 15 16 16 17 17 16 16 16 16 16 15 15 14 13 13 11 9 7 7 6
17 17 16 14 14 13 14 15 15 16 16 17 18 18 19 21 21 20 19 17 16 15 14 14 14 15 15 15 16 16 16 16 15 15 14 14 13 13 12 10 9 8 7 5
16 16 16 15 15 16 14 14 15 16 16 16 17 18 20 20 19 18 17 16 15 14 13 13 14 14 14 15 15 15 15 15 15 14 14 13 13 12 11 11 10 8 6 5
14 16 16 17 14 13 15 15 15 16 17 15 16 17 20 19 18 16 16 15 14 13 13 13 13 13 13 14 14 14 14 14 14 14 13 13 13 12 11 11 10 8 6 5
13 15 16 17 15 13 13 13 14 15 15 15 15 17 20 19 19 17 16 15 14 13 12 12 12 13 13 13 13 13 13 13 13 13 13 13 12 12 11 10 9 7 5 4
13 15 16 17 18 17 15 14 13 13 14 15 16 17 19 19 18 16 15 14 13 12 12 12 12 12 12 12 12 12 12 12 12 12 12 12 12 11 10 9 8 6 4 3
13 14 15 15 16 15 14 14 15 14 14 14 16 17 17 17 16 14 13 13 12 12 11 11 11 11 11 11 11 11 10 11 10 11 11 11 10 10 9 8 7 5 4 2
12 13 13 13 14 13 12 13 14 14 14 14 14 15 16 14 13 13 13 13 12 11 11 11 10 10 10 9 9 9 9 9 9 10 10 10 9 9 8 7 6 4 3 1
11 12 12 14 12 11 13 15 14 14 14 14 15 16 14 13 13 12 12 12 11 11 10 10 9 9 8 8 8 8 8 8 9 9 9 9 9 8 7 6 5 4 2 0
12 11 12 12 11 10 16 15 14 14 14 14 13 13 13 12 11 11 11 11 10 10 9 9 8 8 7 7 7 7 8 8 8 8 8 8 7 7 6 5 4 3 1 -1
10 11 11 10 12 13 15 14 13 12 14 14 13 12 12 11 11 12 11 10 9 8 8 7 7 7 6 6 6 6 7 7 7 7 7 6 6 5 5 4 3 1 -0 -2
7 9 10 9 9 11 16 13 11 12 13 12 11 11 11 10 10 11 9 8 8 7 7 6 6 6 6 6 6 6 6 6 5 5 5 5 5 4 4 3 2 0 -1 -2
8 8 8 9 9 12 14 10 10 12 14 11 11 10 10 10 9 9 8 7 6 6 6 6 5 5 5 5 5 5 5 4 4 4 4 4 4 3 3 2 1 -1 -2 -3
11 10 9 9 9 10 12 10 12 13 11 10 10 9 8 8 7 7 6 6 6 5 5 5 5 5 5 5 4 3 3 3 3 3 3 3 3 2 2 1 -0 -2 -3 -4
10 12 12 11 12 13 10 11 11 10 9 9 8 7 7 6 6 6 5 5 5 5 5 4 4 4 4 3 3 2 2 2 2 2 2 2 2 2 1 0 -1 -2 -4 -5
10 9 9 10 12 12 11 10 9 9 8 7 7 6 6 5 5 4 4 4 4 4 4 3 3 3 3 2 2 2 1 1 1 1 1 1 1 1 0 -1 -2 -3 -4 -5
10 9 9 10 11 11 10 9 8 7 7 6 6 5 5 4 4 4 4 4 3 3 3 3 2 2 1 1 1 1 1 0 0 0 0 0 -0 -0 -1 -2 -2 -3 -4 -4
9 9 9 10 11 10 9 8 7 6 5 5 4 4 4 4 3 3 3 3 3 3 2 2 1 1 1 1 1 1 1 0 -0 -0 -0 -0 -1 -1 -2 -2 -3 -3 -4 -5

GEFSCGP_850_meantemp_090.txt.gz
Temperature
21 19 19 20 20 19 19 18 18 19 21 19 18 18 19 21 21 20 20 20 20 19 20 19 19 18 16 15 13 12 12 11 11 10 10 10 10 10 9 9 9 9 9 8
20 19 20 20 20 19 18 18 18 19 20 19 17 18 19 21 21 21 20 19 19 18 18 18 18 17 16 15 14 12 12 11 11 12 12 11 11 10 10 9 9 9 9 8
19 21 20 20 19 19 19 18 18 17 17 18 18 18 21 21 21 21 20 19 18 17 17 17 17 17 16 14 14 13 12 11 11 11 10 9 8 8 8 9 10 9 9 9
20 20 19 19 19 19 18 19 17 17 15 16 17 16 19 20 19 18 19 18 17 17 17 17 16 16 15 14 13 12 12 11 10 10 10 9 10 11 12 11 11 10 9 8
19 20 19 18 19 17 18 17 16 16 15 15 17 17 18 20 19 18 18 18 17 17 16 16 16 15 15 14 13 13 12 11 10 10 10 9 10 11 10 9 9 8 8 8
19 19 18 18 18 17 17 16 16 16 15 15 19 18 18 19 19 18 18 18 17 16 16 16 15 15 14 14 14 13 12 12 11 10 10 9 10 10 9 8 8 8 7 7
20 19 18 17 17 18 17 16 16 16 15 17 18 18 17 20 19 18 18 18 17 16 15 15 15 14 14 14 14 13 13 12 11 10 10 10 10 9 8 8 8 7 6 6
19 19 18 17 18 16 17 17 16 15 16 17 18 17 19 20 20 19 18 17 17 16 15 15 14 14 14 13 13 13 13 13 12 11 11 10 9 9 9 9 8 7 7 6
18 18 17 17 17 17 17 17 17 15 16 15 17 19 20 20 19 18 18 17 16 15 15 14 14 14 13 13 13 13 13 13 12 12 11 11 10 10 9 9 8 7 7 6
18 17 18 16 15 15 16 16 15 15 15 15 17 18 18 19 18 18 17 17 16 15 14 14 13 13 13 13 13 12 12 12 12 12 11 11 11 10 9 9 8 8 8 7
18 17 17 16 15 17 14 15 15 15 16 14 14 16 19 19 18 17 16 16 15 14 14 14 13 13 12 12 12 12 12 12 11 11 11 10 10 9 9 8 8 8 7 6
17 16 16 17 17 16 17 17 16 15 15 15 14 15 19 19 18 17 16 16 15 14 14 13 13 12 12 12 11 11 11 11 10 10 10 9 9 9 8 8 8 7 7 6
16 15 15 16 15 15 15 16 16 15 14 13 13 14 19 18 17 16 16 15 15 14 13 13 12 12 11 11 11 10 10 10 9 9 9 9 8 8 8 8 8 7 6 6
15 14 15 15 15 16 16 16 16 14 13 13 13 15 17 17 16 15 15 14 14 13 13 12 11 11 10 10 10 9 9 9 8 8 8 8 8 7 7 7 7 6 6 5
14 13 14 15 16 16 15 15 15 14 14 14 14 15 16 15 14 14 14 13 13 13 12 11 11 10 10 9 9 9 8 8 8 7 7 7 7 7 6 6 6 5 5 5
13 13 13 13 14 15 14 15 15 14 14 14 14 14 15 14 14 13 13 12 12 12 11 10 10 9 9 8 8 7 7 7 7 6 6 6 6 5 5 5 4 4 4 3
13 13 12 11 13 13 12 14 15 15 15 15 14 14 13 12 12 12 12 12 11 10 10 9 9 8 8 7 7 7 6 6 6 6 5 5 4 4 4 4 3 3 2 2
13 12 11 10 11 9 13 16 16 15 15 14 13 13 12 12 12 12 12 10 10 9 9 8 8 7 7 6 6 6 6 5 5 5 4 4 4 3 3 3 2 2 1 1
11 12 10 9 9 11 14 14 14 13 13 13 12 12 12 11 10 11 11 9 8 8 8 7 7 6 6 6 5 5 5 4 4 3 3 3 3 2 2 2 1 1 1 0
9 10 9 9 8 8 13 13 13 12 11 11 11 10 10 9 7 8 9 8 8 7 7 6 6 6 5 5 5 4 4 3 3 2 2 2 2 1 1 1 0 0 0 -0
9 8 8 8 8 9 13 12 12 11 10 11 11 10 9 8 7 8 7 7 7 6 6 5 5 5 4 4 3 3 3 2 2 1 1 1 1 1 0 -0 -0 -0 -1 -1
10 9 8 8 8 9 12 12 11 10 11 10 9 9 8 8 7 7 6 6 6 5 5 5 4 4 4 3 2 2 1 1 1 1 1 0 0 -0 -0 -1 -1 -1 -1 -2
11 12 11 10 10 13 13 12 11 10 9 8 8 7 7 6 6 6 5 5 5 4 4 4 3 3 3 2 1 1 1 0 0 -0 -0 -0 -0 -1 -1 -1 -1 -2 -2 -2
12 12 11 10 11 12 12 11 10 9 8 7 7 6 6 5 5 4 4 4 4 4 3 3 2 2 2 1 1 0 -0 -0 -0 -1 -1 -1 -1 -1 -1 -2 -2 -2 -3 -3
10 10 9 9 10 11 10 9 8 7 6 6 5 5 4 4 4 4 3 3 3 3 2 2 1 1 1 0 -0 -0 -1 -1 -1 -1 -1 -1 -2 -2 -2 -2 -3 -3 -3 -3
9 9 8 8 8 7 7 7 6 5 5 4 4 4 4 3 3 3 3 2 2 2 2 1 1 0 -0 -0 -0 -1 -1 -1 -1 -2 -2 -2 -2 -2 -2 -3 -3 -3 -3 -3

GEFSCGP_850_meantemp_096.txt.gz
Temperature
17 14 14 14 14 15 15 15 14 14 15 15 14 14 14 16 16 16 16 17 17 17 18 18 19 19 18 18 17 16 15 14 13 12 11 11 11 10 10 10 10 9 9 8
14 14 14 15 16 16 16 15 14 13 14 14 14 13 14 15 15 16 16 16 16 17 18 18 18 18 17 17 16 16 15 14 14 13 13 12 11 10 10 10 9 9 9 8
15 15 17 17 17 16 15 15 14 14 13 13 14 14 15 15 15 15 16 16 16 16 16 17 17 17 16 16 16 15 15 14 13 13 12 11 10 10 10 10 10 9 9 8
15 15 17 17 17 16 14 15 15 14 13 12 13 13 14 15 15 14 15 15 16 16 16 16 16 16 15 15 15 14 14 13 13 12 11 11 11 11 11 10 10 9 9 8
15 17 17 17 16 16 15 15 14 14 13 12 12 12 12 14 15 14 14 15 15 15 15 15 15 15 15 14 14 14 13 12 12 12 11 11 10 10 10 10 9 9 9 8
14 16 17 16 16 16 15 13 13 11 11 13 14 13 13 13 14 14 14 14 15 15 15 15 14 14 14 14 14 13 13 12 12 11 11 11 10 10 10 9 9 9 8 8
15 16 16 16 16 15 14 12 12 13 12 13 13 14 13 14 14 14 14 14 15 15 14 14 14 14 13 13 13 13 12 12 12 11 11 11 10 10 9 9 9 8 8 8
15 14 15 15 16 15 14 13 12 13 12 11 12 13 13 13 14 15 15 14 14 14 14 14 13 13 13 13 12 12 12 11 11 11 11 10 10 10 9 9 9 8 8 8
14 15 15 15 15 15 15 13 12 11 11 11 11 12 13 14 13 13 13 14 14 14 13 13 13 12 12 12 12 11 11 11 11 10 10 10 9 9 9 8 8 8 7 7
15 15 15 14 14 14 14 12 10 11 12 11 11 11 13 14 13 13 12 13 13 13 13 12 12 12 11 11 11 11 10 10 10 9 9 9 8 8 8 7 7 7 7 7
15 14 13 13 14 14 13 13 12 10 10 10 10 11 13 13 13 12 12 13 13 13 12 12 11 11 11 10 10 10 9 9 9 8 8 8 8 7 7 7 7 6 6 6
13 11 11 12 13 13 12 12 11 12 11 9 9 11 13 12 12 12 12 12 12 12 11 11 11 10 10 9 9 9 8 8 8 7 7 7 7 6 6 6 6 5 5 5
13 11 12 13 13 13 13 13 12 11 10 9 9 11 12 11 11 12 12 11 11 11 10 10 10 9 9 9 8 8 7 7 7 6 6 6 6 6 5 5 5 5 4 4
12 11 11 13 12 13 12 12 12 11 9 8 9 11 12 11 10 10 11 10 10 10 9 9 9 8 8 8 7 7 7 6 6 6 5 5 5 5 5 4 4 4 3 3
11 11 10 10 11 11 11 11 11 10 9 9 10 10 11 10 9 10 10 9 9 9 8 8 8 7 7 7 6 6 6 5 5 5 5 4 4 4 4 3 3 3 3 2
9 10 10 10 11 10 10 10 10 10 10 9 10 10 10 9 10 9 9 8 8 8 7 7 7 7 6 6 5 5 5 5 4 4 4 4 3 3 3 2 2 2 2 1
8 9 9 8 9 9 9 10 10 10 10 9 9 9 8 8 8 9 8 8 7 7 7 6 6 6 5 5 5 4 4 4 3 3 3 3 2 2 2 1 1 1 1 0
8 8 7 7 9 8 10 11 11 10 9 9 8 8 8 8 8 8 8 7 6 6 6 5 5 5 5 4 4 4 3 3 3 2 2 1 1 1 1 0 0 -0 -0 -0
8 8 7 6 7 7 9 10 11 10 9 8 7 7 7 7 7 7 7 6 6 5 5 5 4 4 4 3 3 3 2 2 2 1 1 0 -0 -0 -0 -1 -1 -1 -1 -1
6 7 6 5 7 7 9 10 11 10 8 7 7 6 6 6 4 5 6 5 5 5 4 4 4 3 3 3 2 2 2 1 1 0 0 -0 -1 -1 -1 -1 -1 -1 -2 -2
6 6 5 5 5 7 8 9 10 9 7 7 7 6 6 5 4 5 4 4 4 4 3 3 3 3 2 2 1 1 1 1 0 -0 -0 -1 -1 -1 -2 -2 -2 -2 -2 -2
7 5 5 4 5 6 8 8 7 7 7 6 6 5 5 4 4 4 4 3 3 3 3 2 2 2 2 1 1 0 0 -0 -0 -1 -1 -1 -1 -2 -2 -2 -2 -2 -3 -3
6 7 6 6 7 7 8 7 7 7 6 5 5 4 4 4 3 3 3 3 2 2 2 2 1 1 1 1 0 -0 -1 -1 -1 -2 -2 -2 -2 -2 -2 -2 -3 -3 -3 -3
7 7 6 5 6 6 7 6 6 5 5 4 4 4 3 3 3 2 2 2 2 2 1 1 1 0 0 -0 -1 -1 -1 -2 -2 -2 -2 -2 -2 -3 -3 -3 -3 -3 -3 -4
6 6 5 5 5 6 6 5 5 5 5 4 4 4 3 3 2 2 2 2 1 1 1 0 0 -0 -1 -1 -1 -2 -2 -2 -3 -3 -3 -3 -3 -3 -3 -3 -3 -4 -4 -4
4 5 5 5 6 5 5 5 5 5 4 4 4 3 3 2 2 2 1 1 1 1 0 0 -0 -1 -1 -2 -2 -2 -3 -3 -3 -4 -4 -4 -4 -4 -4 -4 -4 -4 -4 -4

GEFSCGP_850_meantemp_102.txt.gz
Temperature
15 13 13 13 13 14 14 14 13 12 13 13 12 12 12 13 13 14 14 15 15 15 16 16 17 17 17 17 16 15 15 14 13 13 12 11 11 11 10 10 9 9 9 8
13 13 13 13 13 13 13 13 12 12 13 12 11 11 12 13 13 13 14 14 15 16 16 16 16 16 16 16 15 15 14 13 13 12 12 11 11 10 10 10 9 9 9 9
14 14 15 14 14 14 14 13 13 13 12 12 12 13 14 14 14 14 14 14 15 15 15 15 15 15 15 15 14 14 13 13 12 12 11 11 11 10 10 10 10 10 9 9
13 13 14 15 15 14 13 14 13 13 12 11 12 12 13 13 13 13 14 14 14 14 14 14 14 14 14 14 14 13 13 13 12 12 11 11 11 11 11 10 10 9 9 9
14 15 15 15 15 14 14 13 13 12 11 11 11 11 11 12 13 13 13 14 14 14 14 14 13 13 13 13 13 13 12 12 12 11 11 11 10 10 10 10 10 9 9 9
13 14 15 15 14 14 13 12 11 9 9 12 12 12 12 11 12 13 13 14 14 14 13 13 13 13 12 12 12 12 12 12 11 11 10 10 10 10 10 9 9 9 9 8
14 14 14 14 14 14 13 12 11 13 11 12 11 11 11 12 11 11 12 13 13 13 13 12 12 12 12 12 12 11 11 11 11 10 10 10 9 9 9 8 8 8 8 8
14 13 14 14 14 14 13 12 12 13 12 10 10 11 11 11 11 11 12 13 13 12 12 12 11 11 11 11 11 11 10 10 10 10 9 9 8 8 8 8 7 7 7 7
13 13 14 13 13 13 12 11 11 10 10 10 10 10 10 11 11 11 11 12 12 12 11 11 11 10 10 10 10 10 9 9 9 9 8 8 8 7 7 7 7 6 6 6
13 14 14 13 13 12 12 9 9 10 11 11 10 10 11 12 11 10 10 11 11 11 11 11 10 10 10 9 9 9 9 8 8 7 7 7 7 6 6 6 6 6 5 5
13 13 13 13 12 13 11 11 9 8 9 10 10 11 11 11 10 9 9 10 10 10 10 10 10 9 9 9 8 8 8 7 7 7 6 6 6 6 5 5 5 5 5 5
11 10 11 12 12 12 11 11 9 11 10 8 8 10 10 9 9 9 9 9 10 10 9 9 9 9 8 8 8 7 7 6 6 6 5 5 5 5 5 5 5 4 4 4
10 10 11 12 12 11 11 10 9 9 8 6 8 10 9 8 8 9 9 9 9 9 9 8 8 8 7 7 6 6 6 5 5 5 5 5 4 4 4 4 4 3 3 3
11 10 11 12 12 11 12 11 9 9 8 7 7 9 9 8 8 8 8 8 8 8 8 7 7 7 6 6 5 5 5 5 4 4 4 4 4 3 3 3 3 2 2 2
10 10 10 10 10 10 10 10 9 8 8 9 9 8 9 8 7 8 8 8 7 7 7 6 6 5 5 5 4 4 4 4 3 3 3 3 3 2 2 2 2 1 1 1
8 10 10 10 10 9 8 8 8 8 8 7 8 8 8 7 7 7 7 7 6 6 6 5 5 4 4 4 3 3 3 3 3 3 2 2 2 2 1 1 1 1 0 0
7 8 9 8 8 9 8 9 8 8 7 7 7 7 6 6 6 7 7 6 5 5 5 4 4 3 3 3 3 3 2 2 2 2 2 1 1 1 0 -0 -0 -0 -0 -1
6 7 7 7 8 9 10 9 8 8 7 6 7 6 6 6 7 7 6 5 5 4 4 3 3 3 3 3 2 2 2 2 1 1 1 0 -0 -0 -1 -1 -1 -1 -1 -2
6 7 6 6 7 7 8 8 7 7 7 6 6 6 6 6 5 6 6 5 4 4 3 3 3 2 2 2 2 1 1 1 1 0 -0 -0 -1 -1 -1 -2 -2 -2 -2 -2
4 5 5 5 6 7 9 9 8 8 7 6 6 5 5 4 3 4 5 4 4 3 3 3 2 2 2 2 1 1 1 0 -0 -1 -1 -1 -2 -2 -2 -2 -2 -3 -3 -3
5 5 5 4 5 6 7 8 8 8 7 6 6 5 5 3 3 4 4 3 3 3 3 2 2 2 2 1 0 0 -0 -0 -1 -1 -2 -2 -2 -3 -3 -3 -3 -3 -4 -4
5 4 4 4 5 6 7 7 6 6 6 6 6 5 5 4 4 3 3 3 3 2 2 2 1 1 1 1 -0 -1 -1 -1 -2 -2 -2 -2 -3 -3 -3 -4 -4 -4 -4 -4
5 6 5 5 7 6 7 7 7 7 6 6 5 4 4 3 3 3 2 2 2 2 2 1 1 1 1 0 -1 -1 -1 -2 -2 -2 -3 -3 -3 -3 -4 -4 -4 -4 -5 -5
5 4 4 4 4 5 6 6 6 6 5 5 4 4 3 3 2 2 2 2 1 1 1 1 0 -0 -0 -0 -1 -1 -2 -2 -3 -3 -3 -4 -4 -4 -4 -5 -5 -5 -5 -5
5 4 3 4 4 4 5 5 5 5 4 4 3 3 2 2 2 1 1 1 1 1 1 0 -0 -1 -1 -1 -1 -2 -2 -3 -4 -4 -4 -4 -5 -5 -5 -5 -5 -5 -6 -6
3 3 3 4 4 3 5 5 4 4 4 3 3 2 2 2 1 1 1 1 1 0 0 -0 -1 -1 -1 -2 -2 -2 -3 -4 -4 -5 -5 -5 -5 -5 -6 -6 -6 -5 -6 -6

GEFSCGP_850_meantemp_108.txt.gz
Temperature
17 19 20 20 19 19 18 18 19 19 17 17 18 18 18 16 16 16 16 15 14 13 13 14 15 15 15 15 14 14 14 13 13 12 11 11 11 10 10 10 10 9 9 9
19 19 19 17 16 16 17 18 19 18 16 16 17 17 17 16 16 16 15 15 14 13 13 13 14 14 14 14 14 14 13 13 12 12 11 11 11 11 10 10 10 9 9 9
19 19 16 16 16 17 17 18 18 18 17 16 16 18 17 16 16 14 14 14 13 13 13 12 13 13 13 13 13 13 13 12 12 12 11 11 11 11 10 10 10 10 9 9
18 17 15 16 17 17 18 17 16 16 17 18 17 19 18 17 17 16 15 14 13 12 12 12 12 13 13 13 12 12 12 12 12 11 11 11 10 10 10 10 9 9 9 9
18 16 16 17 17 17 17 15 15 15 16 17 17 19 19 17 17 16 15 14 13 12 11 12 12 12 12 12 12 12 12 11 11 11 11 10 10 9 9 9 9 8 8 8
17 16 16 17 16 15 15 15 14 15 16 18 17 18 19 18 17 17 15 13 12 11 11 11 11 11 11 11 11 11 11 11 11 10 10 9 9 9 8 8 8 8 7 7
17 16 16 15 16 15 16 17 18 19 19 19 16 16 19 17 16 16 15 13 12 11 11 10 10 11 11 11 11 10 10 10 10 9 9 9 8 8 7 7 7 7 6 6
17 18 16 16 17 17 17 17 18 19 19 19 16 17 18 15 13 13 13 13 11 11 10 10 10 10 10 10 10 10 9 9 9 8 8 8 7 7 6 6 6 6 5 5
18 17 15 14 15 16 16 17 16 17 16 17 18 17 17 14 13 13 12 12 11 10 10 9 9 9 9 9 9 9 9 8 8 7 7 7 6 6 6 5 5 5 5 4
18 17 15 14 14 13 15 16 16 17 17 18 18 18 18 15 14 13 13 12 11 10 9 9 9 9 9 9 8 8 8 7 7 6 6 6 5 5 5 5 4 4 4 4
17 17 15 15 15 16 14 15 16 16 16 17 18 19 17 16 15 14 13 12 10 9 9 8 8 8 8 8 8 7 7 6 6 6 5 5 5 4 4 4 4 3 3 3
16 17 17 16 14 14 15 16 16 17 16 16 17 18 15 15 14 13 12 10 9 8 8 8 8 8 7 7 7 6 6 5 5 5 5 4 4 4 3 3 3 2 2 2
14 16 17 16 14 13 14 14 14 16 16 16 16 18 13 13 12 11 11 10 8 8 7 7 7 7 7 6 6 6 5 5 4 4 4 3 3 3 2 2 2 2 1 1
14 16 17 18 17 16 15 13 13 14 15 16 16 17 14 13 12 11 10 9 8 7 7 7 6 6 6 6 5 5 4 4 4 3 3 3 2 2 2 1 1 1 0 0
14 16 16 15 14 14 15 15 13 14 16 16 17 16 16 15 13 11 10 8 8 7 6 6 6 6 5 5 4 4 4 3 3 3 2 2 1 1 1 1 0 0 -0 -1
14 15 14 14 12 12 12 14 14 13 14 15 15 15 15 12 11 10 9 8 7 6 6 5 5 5 4 4 4 3 3 3 2 2 1 1 1 0 0 -0 -0 -1 -1 -1
13 14 14 15 11 12 13 14 14 13 13 13 13 14 12 10 9 9 8 7 6 6 5 5 4 4 4 3 3 2 2 2 2 1 1 0 0 -0 -1 -1 -1 -2 -2 -2
13 13 13 13 12 11 15 12 12 12 12 11 11 11 10 9 8 7 7 7 6 5 5 4 4 4 3 3 2 2 2 1 1 0 0 -0 -1 -1 -1 -2 -2 -2 -2 -3
11 13 12 12 13 14 14 11 11 11 11 11 10 10 8 7 7 7 6 5 5 5 4 4 3 3 3 2 2 1 1 1 0 -0 -1 -1 -1 -2 -2 -3 -3 -3 -3 -3
8 11 12 11 11 12 14 10 9 11 12 10 9 9 7 7 9 9 6 5 4 4 4 3 3 2 2 2 1 1 0 -0 -0 -1 -1 -1 -2 -2 -3 -3 -3 -3 -4 -4
9 10 11 11 11 13 12 9 9 11 13 9 8 7 7 7 8 6 5 4 4 3 3 3 2 2 2 1 0 0 -0 -1 -1 -1 -2 -2 -3 -3 -3 -4 -4 -4 -4 -5
10 10 10 11 10 11 9 8 10 11 8 7 7 6 6 5 5 5 4 4 3 3 3 2 2 1 1 1 -0 -0 -1 -1 -2 -2 -2 -3 -3 -4 -4 -4 -5 -5 -5 -5
10 11 11 11 12 9 7 8 7 7 7 6 6 5 5 5 4 4 3 3 3 2 2 1 1 1 1 0 -1 -1 -1 -2 -2 -3 -3 -4 -4 -4 -5 -5 -5 -5 -5 -6
8 7 9 8 9 7 6 6 6 6 6 6 6 5 5 4 3 3 3 2 2 2 1 1 0 -0 -0 -1 -1 -2 -2 -3 -3 -4 -4 -4 -4 -5 -5 -5 -6 -6 -6 -6
9 7 8 8 8 6 5 5 5 6 5 5 5 4 4 3 3 2 2 2 1 1 1 0 -0 -1 -1 -1 -2 -2 -3 -3 -4 -4 -4 -5 -5 -5 -6 -6 -6 -6 -6 -6
7 7 8 10 8 7 7 5 5 5 5 4 4 3 3 2 2 2 1 1 1 0 0 -0 -1 -1 -2 -2 -2 -2 -3 -4 -4 -5 -5 -5 -6 -6 -6 -6 -6 -6 -6 -6

GEFSCGP_850_meantemp_114.txt.gz
Temperature
20 19 18 19 20 20 19 19 19 20 19 19 18 18 18 19 19 18 18 17 15 14 13 13 13 14 14 13 13 13 12 12 12 11 11 11 10 10 10 10 10 9 9 9
19 18 20 20 19 19 19 18 19 20 19 18 18 18 18 18 18 18 18 17 15 14 13 13 13 13 13 13 13 13 12 12 12 11 11 11 11 10 10 10 10 10 9 9
19 20 19 19 19 18 18 18 19 19 19 18 18 17 17 18 18 18 18 17 15 14 13 13 13 13 13 13 13 13 12 12 12 11 11 11 10 10 10 10 9 9 9 9
19 20 19 18 18 19 18 19 19 18 17 17 18 16 17 16 16 16 17 16 15 14 13 13 12 13 13 13 13 12 12 12 12 11 11 10 10 9 9 9 9 9 8 8
19 19 18 18 19 19 18 17 18 17 16 16 17 17 17 16 15 15 16 16 15 14 13 12 12 12 12 12 12 12 12 11 11 11 10 10 9 9 9 8 8 8 8 7
19 19 19 19 18 18 18 17 17 16 15 15 17 17 18 16 16 16 16 16 15 13 13 12 12 12 12 12 12 11 11 11 10 10 10 9 9 9 8 8 8 7 7 7
18 18 18 18 17 16 17 16 16 15 14 16 19 18 18 18 17 17 16 15 14 13 12 12 11 11 11 11 11 11 10 10 10 10 9 9 8 8 7 7 7 6 6 6
18 18 17 17 17 17 16 17 16 16 17 18 17 17 17 16 17 18 17 15 14 13 12 11 11 11 11 10 10 10 10 9 9 9 8 8 7 7 7 6 6 6 5 5
19 18 17 17 18 17 17 16 18 16 17 17 17 18 15 16 15 16 16 15 14 13 12 11 11 10 10 10 9 9 9 9 8 8 8 7 7 6 6 6 5 5 5 4
19 18 16 15 16 16 16 17 16 15 16 16 18 18 16 13 14 14 14 14 14 13 12 11 10 10 9 9 9 9 8 8 8 7 7 6 6 6 5 5 5 4 4 4
18 17 15 15 15 15 15 16 16 16 16 15 16 17 17 15 15 14 14 15 14 13 12 11 10 10 9 9 8 8 8 7 7 7 6 6 5 5 5 4 4 4 3 3
18 17 16 16 16 16 17 16 16 15 16 16 15 16 16 16 15 15 15 14 13 12 12 11 10 9 9 8 8 8 7 7 6 6 6 5 5 5 4 4 3 3 3 2
17 16 16 15 15 15 15 16 16 16 15 14 14 16 15 15 15 15 15 14 13 12 11 10 9 9 8 8 7 7 6 6 6 5 5 5 4 4 3 3 3 2 2 1
17 16 16 16 16 15 15 15 16 15 14 14 15 16 14 14 14 14 14 13 12 11 10 10 9 8 8 7 7 6 6 5 5 5 4 4 4 3 3 2 2 1 1 1
15 15 16 17 17 17 16 16 15 14 14 14 15 16 16 15 14 14 13 13 12 11 10 9 8 8 7 7 6 5 5 5 4 4 4 3 3 2 2 2 1 1 0 -0
14 15 16 15 16 16 15 15 15 15 15 15 15 15 15 15 15 14 13 12 11 10 9 8 8 7 6 6 5 5 5 4 4 3 3 3 2 2 1 1 1 0 -0 -1
14 14 14 13 15 14 13 14 14 14 15 15 14 14 13 13 13 13 12 11 11 9 8 8 7 6 6 5 5 4 4 4 3 3 2 2 1 1 1 0 -0 -1 -1 -1
14 14 13 12 13 11 14 15 15 15 15 15 14 13 13 12 12 12 11 11 10 9 8 7 6 6 5 5 4 4 3 3 2 2 2 1 1 0 -0 -0 -1 -1 -2 -2
11 13 12 11 11 12 14 13 13 13 13 14 13 12 12 11 10 10 10 9 9 8 7 6 6 5 4 4 4 3 3 2 2 1 1 1 0 -0 -1 -1 -2 -2 -2 -3
10 11 11 10 10 10 14 12 13 13 11 13 13 11 10 9 7 8 9 8 8 7 6 5 5 4 4 3 3 2 2 2 1 1 0 0 -0 -1 -1 -2 -2 -2 -3 -3
9 10 10 9 9 11 12 11 11 11 11 11 12 11 10 8 7 8 8 7 6 6 5 5 4 4 3 3 2 2 1 1 1 0 -0 -1 -1 -2 -2 -2 -3 -3 -3 -4
10 9 9 9 9 10 10 10 10 10 10 11 10 10 9 8 7 7 6 6 5 5 4 4 3 3 3 2 2 1 1 0 -0 -0 -1 -1 -2 -2 -3 -3 -3 -4 -4 -4
11 11 11 11 11 11 11 11 10 10 10 9 9 9 8 7 6 6 5 5 4 4 3 3 3 2 2 2 1 0 0 -0 -1 -1 -1 -2 -2 -3 -3 -4 -4 -4 -5 -5
11 11 11 11 11 11 11 10 10 9 9 8 8 8 7 6 6 5 4 4 4 3 3 2 2 2 1 1 0 0 -0 -1 -1 -2 -2 -3 -3 -3 -4 -4 -5 -5 -5 -5
11 9 9 10 10 10 10 9 9 8 8 7 7 6 6 5 5 4 4 3 3 2 2 2 1 1 1 0 -0 -0 -1 -2 -2 -2 -3 -3 -4 -4 -5 -5 -5 -5 -6 -6
10 9 9 9 10 9 9 9 8 7 7 6 6 5 5 5 4 3 3 3 2 2 1 1 1 0 0 -0 -1 -1 -2 -2 -3 -3 -3 -4 -4 -5 -5 -6 -6 -6 -6 -6

GEFSCGP_850_meantemp_120.txt.gz
Temperature
17 14 14 14 14 15 16 16 15 15 16 16 15 14 14 15 14 13 13 14 14 14 14 14 14 14 14 13 13 13 12 12 11 11 11 11 10 10 10 10 9 9 9 9
14 14 14 15 15 16 16 16 15 15 16 15 14 14 14 14 13 14 14 13 14 13 13 13 13 13 13 13 13 13 12 12 12 11 11 10 10 10 10 9 9 9 9 8
14 15 16 16 16 16 16 15 15 15 15 15 15 14 14 14 14 14 14 14 14 14 14 13 13 13 13 13 13 13 12 12 12 11 11 10 10 10 10 10 9 9 8 8
14 14 16 16 16 16 15 16 15 16 14 13 14 12 13 13 12 12 12 13 13 14 14 14 13 13 13 13 12 12 12 12 11 11 11 10 10 10 9 9 9 8 8 7
14 15 15 15 16 15 15 16 16 16 14 13 12 13 13 12 12 11 11 12 13 14 14 14 13 13 12 12 12 12 12 11 11 11 10 10 10 9 9 8 8 8 7 7
14 16 16 15 16 16 15 15 13 11 11 12 12 11 12 11 12 12 11 12 13 13 13 13 13 12 12 12 12 11 11 11 11 10 10 10 9 9 8 8 7 7 7 7
15 15 16 16 15 15 15 13 12 13 11 11 12 12 13 13 12 12 12 12 12 13 13 13 12 12 12 12 11 11 11 11 10 10 9 9 9 8 8 7 7 6 6 6
13 14 14 14 14 13 13 13 12 13 12 12 13 12 13 13 13 14 14 13 12 12 13 13 13 12 12 11 11 11 10 10 10 9 9 8 8 7 7 6 6 6 5 5
13 13 14 14 15 14 13 12 12 12 12 12 12 12 13 13 12 12 12 12 12 12 13 13 13 12 12 11 11 10 10 10 9 9 8 8 7 7 6 6 5 5 5 4
13 14 14 14 15 14 14 12 11 12 12 12 12 13 13 14 13 11 10 11 12 12 12 13 12 12 11 11 10 10 9 9 8 8 8 7 7 6 6 5 5 4 4 4
14 14 13 13 13 13 13 13 12 11 10 11 11 13 13 13 12 11 10 12 12 12 13 12 12 11 11 10 10 9 9 8 8 7 7 7 6 6 5 5 4 4 3 3
13 11 11 12 13 12 12 12 11 11 11 10 10 12 13 12 12 12 12 13 13 13 13 12 12 11 10 10 9 9 8 8 7 7 6 6 5 5 4 4 4 3 3 2
13 12 12 12 13 13 12 12 12 11 11 9 10 12 13 12 12 13 13 13 13 12 12 12 11 11 10 9 9 8 8 7 7 6 6 5 5 4 4 4 3 3 2 2
13 11 12 12 12 12 12 12 12 11 10 10 10 12 13 12 12 12 13 13 13 12 12 11 11 10 10 9 8 8 7 7 6 6 5 5 4 4 3 3 3 2 2 1
12 12 12 12 13 13 12 13 12 11 11 11 12 12 13 12 11 13 13 13 12 12 11 11 10 10 9 8 8 7 7 6 6 5 5 4 4 3 3 2 2 1 1 0
11 12 12 13 13 12 12 12 12 12 12 11 11 12 12 13 13 12 12 12 11 12 11 11 10 9 9 8 7 7 6 6 5 4 4 3 3 3 2 2 1 1 0 -0
10 11 11 11 12 12 11 12 12 11 11 11 12 13 12 11 10 11 12 12 12 12 11 10 10 9 8 8 7 6 6 5 4 4 3 3 2 2 2 1 1 0 -0 -1
9 10 9 9 11 10 12 12 12 12 11 10 11 11 10 10 11 12 12 12 12 11 10 10 9 8 8 7 6 5 5 4 4 3 3 2 2 1 1 0 0 -0 -1 -1
9 9 8 8 9 9 11 12 12 11 11 11 10 10 10 10 10 9 11 11 11 11 10 9 8 8 7 6 5 5 4 4 3 2 2 2 1 1 0 -0 -1 -1 -2 -2
8 8 8 7 9 9 12 12 12 12 11 11 10 9 8 9 8 8 10 10 10 9 9 8 7 7 6 5 4 4 3 3 2 2 1 1 0 -0 -0 -1 -1 -2 -2 -3
8 8 7 7 8 9 10 11 11 11 11 11 11 10 9 8 9 10 9 9 9 8 8 7 6 6 5 4 4 3 3 2 1 1 1 0 -0 -0 -1 -1 -2 -2 -3 -3
8 7 7 6 7 9 10 9 10 11 11 11 11 11 10 10 9 9 8 8 8 7 6 6 5 5 4 3 3 2 2 1 1 0 0 -0 -1 -1 -2 -2 -2 -3 -3 -4
8 9 8 8 10 10 11 11 12 12 11 11 11 11 10 9 9 8 7 7 6 6 5 5 4 4 3 3 2 2 1 1 0 -0 -1 -1 -1 -2 -2 -3 -3 -4 -4 -5
8 8 7 7 8 9 10 11 12 12 11 11 11 10 10 9 8 7 6 6 5 5 4 4 3 3 3 2 2 1 0 -0 -1 -1 -1 -2 -2 -2 -3 -3 -4 -5 -5 -5
8 7 7 8 8 8 10 11 11 11 10 10 9 9 8 8 7 6 6 5 5 4 3 3 2 2 2 1 1 1 -0 -1 -1 -2 -2 -2 -3 -3 -4 -4 -5 -5 -6 -6
7 8 8 9 9 8 10 11 11 10 10 9 8 8 7 7 6 5 5 4 4 3 3 2 2 1 1 1 0 -0 -1 -1 -2 -2 -3 -3 -4 -4 -5 -5 -5 -5 -6 -6

GEFSCGP_850_meantemp_126.txt.gz
Temperature
15 13 13 13 13 14 14 14 13 13 14 14 12 12 13 14 13 12 13 14 14 15 15 14 14 14 14 14 13 13 12 12 11 11 10 10 10 10 9 9 9 9 8 8
13 13 13 14 13 14 14 14 13 13 13 13 12 12 12 12 12 13 13 13 14 14 14 14 14 14 14 14 13 13 12 12 11 11 11 10 10 10 9 9 9 9 8 8
13 14 14 14 14 14 13 13 13 13 13 13 12 12 12 12 12 12 13 14 14 15 15 14 14 14 14 14 13 13 12 12 11 11 10 10 10 10 9 9 9 9 8 8
13 13 14 14 14 13 13 13 13 13 13 11 12 11 12 12 11 10 11 12 13 14 14 14 14 14 14 13 13 12 12 11 11 11 10 10 10 10 9 9 9 8 8 8
12 13 13 13 13 13 13 13 13 13 12 11 11 11 12 11 12 11 10 12 13 14 14 14 14 14 13 13 13 12 12 11 11 10 10 10 10 9 9 9 8 8 8 7
13 13 14 14 14 13 13 12 11 9 10 11 11 10 11 11 12 12 11 12 13 13 13 14 13 13 13 12 12 12 11 11 11 10 10 10 9 9 9 8 8 8 7 7
13 13 14 14 13 13 13 12 11 11 10 10 11 10 11 12 12 11 12 13 13 13 13 13 13 13 13 12 12 12 11 11 11 10 10 9 9 9 9 8 8 7 7 7
12 12 13 13 13 12 12 12 11 12 11 10 10 9 11 12 12 12 12 13 13 13 13 13 13 13 13 13 12 12 11 11 10 10 10 9 9 8 8 8 7 7 6 6
11 12 13 13 13 12 11 11 11 10 11 10 10 10 10 12 12 11 12 12 13 13 13 13 13 13 13 12 12 12 11 11 10 10 9 9 8 8 8 7 7 6 6 5
11 12 13 12 13 12 11 10 9 10 11 11 10 10 12 14 14 12 11 12 13 13 13 13 13 13 13 12 12 11 11 10 10 9 9 8 8 8 7 7 6 6 5 5
11 12 12 12 12 11 10 11 10 9 9 10 10 11 12 12 13 11 11 13 14 14 14 14 13 13 12 11 11 11 10 10 9 9 8 8 7 7 7 6 6 5 5 4
10 10 10 11 11 11 11 10 9 10 10 8 8 11 12 11 10 11 12 14 15 15 14 14 13 12 12 11 11 10 10 9 9 8 8 7 7 6 6 6 5 5 4 4
10 10 11 12 11 10 11 10 9 9 9 7 8 11 12 11 11 12 13 14 15 15 14 13 13 12 12 11 11 10 10 9 9 8 7 7 6 6 6 5 5 4 4 3
11 10 11 11 12 10 10 10 9 9 9 8 8 11 12 12 11 12 14 15 14 14 14 13 13 12 12 11 10 10 9 9 8 7 7 6 6 6 5 4 4 4 3 3
11 10 10 11 11 10 11 11 9 9 9 10 10 10 13 12 11 13 14 14 13 13 13 13 13 12 11 11 10 9 9 8 8 7 6 6 5 5 4 4 3 3 2 2
9 10 10 11 11 10 10 10 10 9 10 9 10 11 12 12 13 12 13 12 12 13 13 13 13 12 11 11 10 9 9 8 7 7 6 5 5 4 4 3 3 2 2 1
8 9 10 9 10 11 10 10 10 9 9 9 10 12 12 11 10 11 12 12 12 13 13 12 12 12 11 10 10 9 8 7 7 6 5 5 4 4 3 3 2 2 1 1
8 8 8 8 10 10 11 11 11 10 10 9 9 10 10 10 11 11 12 12 12 12 12 12 11 11 10 10 9 8 7 7 6 5 5 4 4 3 3 2 2 1 1 0
8 8 7 7 8 9 10 10 10 10 10 9 9 9 9 9 9 10 12 12 12 12 11 11 10 10 9 9 8 7 7 6 5 5 4 4 3 3 2 2 1 1 0 -0
6 7 7 6 8 9 11 11 11 11 10 11 9 9 8 8 8 9 12 11 11 11 10 10 10 9 8 8 7 6 6 5 5 4 4 3 2 2 1 1 0 0 -1 -1
7 7 7 6 7 8 9 10 10 11 11 12 11 10 9 8 10 11 11 11 10 10 9 9 9 8 7 7 6 6 5 4 4 3 3 2 2 1 1 0 -0 -1 -1 -2
7 6 6 6 7 9 9 9 9 11 12 12 12 12 11 11 11 11 10 10 9 9 8 8 7 7 6 6 5 5 4 3 3 2 2 2 1 1 0 -0 -1 -1 -2 -2
7 9 8 8 10 10 10 11 12 13 12 13 13 13 12 11 11 10 9 9 8 8 7 7 6 6 5 5 4 4 3 3 2 2 1 1 0 -0 -1 -1 -2 -2 -3 -3
6 7 7 6 7 9 11 11 12 12 13 13 12 12 11 11 10 9 9 8 7 7 6 6 5 5 5 4 3 3 2 2 1 1 1 0 -0 -1 -1 -2 -2 -3 -3 -4
7 5 6 6 7 8 10 12 13 13 12 12 11 11 11 10 9 9 8 7 6 6 5 5 4 4 4 3 3 2 1 1 0 0 -0 -1 -1 -2 -2 -2 -3 -4 -4 -5
6 6 7 9 9 8 11 13 13 12 12 11 11 10 9 9 8 7 7 6 5 5 4 4 3 3 3 2 2 1 1 0 -0 -1 -1 -2 -2 -3 -3 -4 -4 -4 -5 -5

GEFSCGP_850_meantemp_132.txt.gz
Temperature
17 19 19 19 19 19 19 18 19 19 19 17 18 19 20 20 18 17 17 17 16 16 15 15 15 15 15 14 14 13 13 12 12 11 11 10 10 10 10 10 9 9 9 9
18 18 19 18 17 17 18 18 19 19 17 17 18 19 20 20 18 17 17 17 16 15 14 14 15 15 15 14 14 13 13 12 12 11 11 10 10 10 10 10 9 9 9 9
18 18 17 17 17 17 17 18 18 18 18 17 17 20 21 20 17 16 16 16 16 15 14 14 14 15 14 14 14 14 13 12 12 11 11 10 10 10 10 9 9 9 9 9
18 17 16 16 17 17 18 18 17 16 17 19 17 19 21 20 19 18 17 16 15 14 14 14 14 14 14 14 14 13 13 12 12 11 11 10 10 10 10 9 9 9 9 9
17 16 16 17 18 17 18 16 16 16 17 17 17 17 21 20 20 20 19 17 15 14 13 13 14 14 14 14 14 13 13 12 12 11 11 10 10 10 10 9 9 9 9 8
17 16 16 17 16 16 15 15 15 15 17 17 18 17 20 21 20 20 19 17 15 13 13 13 13 13 13 13 13 13 12 12 12 11 10 10 10 10 10 9 9 9 8 8
16 16 15 15 15 15 16 17 17 17 17 18 16 16 19 21 19 18 17 16 15 13 13 13 13 13 13 13 13 13 12 12 11 11 10 10 10 10 9 9 9 8 8 8
16 16 16 15 17 17 16 17 18 17 18 18 16 16 20 20 17 16 15 15 14 13 13 13 13 13 13 13 13 13 12 12 11 11 10 10 10 9 9 9 9 8 8 8
17 17 15 15 15 17 16 17 17 17 16 16 18 18 19 19 19 17 17 15 15 14 14 14 13 13 13 13 13 13 12 12 11 11 10 10 10 9 9 9 8 8 8 7
18 17 15 14 14 14 16 17 16 16 16 17 18 18 19 20 20 19 18 17 15 14 14 14 14 13 13 13 13 12 12 11 11 11 10 10 10 9 9 8 8 8 7 7
17 17 14 14 15 16 14 15 16 17 17 17 17 19 19 20 19 19 18 17 15 14 14 14 14 13 13 12 12 12 12 11 11 10 10 10 9 9 8 8 8 7 7 6
16 17 16 16 15 15 16 17 17 16 16 16 17 18 20 18 18 17 17 16 15 14 14 14 14 13 13 13 12 12 12 11 11 10 10 9 9 8 8 8 7 7 6 6
15 16 15 15 14 13 14 15 16 16 16 16 16 18 19 17 17 16 16 16 15 14 14 14 13 13 13 13 12 12 11 11 10 10 9 9 8 8 8 7 7 6 6 5
15 16 16 17 17 15 14 14 14 15 16 16 16 18 19 19 19 18 17 16 15 14 14 13 13 13 13 12 12 11 11 10 10 9 9 9 8 8 7 7 6 6 5 5
15 15 16 16 15 15 15 15 14 14 16 16 17 18 18 19 19 18 17 15 14 13 13 13 13 12 12 12 12 11 11 10 9 9 9 8 8 7 7 6 6 5 5 4
14 15 15 14 14 14 14 14 14 14 15 16 16 17 18 18 17 16 15 14 13 13 13 13 13 12 12 12 11 11 11 10 9 9 8 8 7 7 6 6 5 5 4 4
14 14 14 15 13 13 14 15 15 14 14 15 16 17 18 17 16 15 14 13 13 13 13 13 13 12 12 11 11 11 10 9 9 8 8 7 7 6 5 5 4 4 3 3
14 14 14 14 13 12 17 16 15 15 15 15 15 16 16 15 14 13 13 12 13 13 13 12 12 12 11 11 11 10 10 9 8 7 7 7 6 5 5 4 4 3 3 2
13 14 13 13 14 15 15 14 13 14 15 16 15 15 15 12 11 13 13 13 13 13 12 12 12 11 11 10 10 9 9 8 8 7 6 6 5 5 4 4 3 3 2 1
10 13 13 12 12 13 16 15 13 14 15 16 14 14 13 11 14 15 13 13 13 12 12 11 11 10 10 10 9 9 8 8 7 6 6 5 4 4 3 3 2 2 1 1
10 11 12 13 13 15 16 12 12 14 16 15 13 13 12 12 14 13 13 12 12 12 11 11 10 10 9 9 8 8 7 7 6 5 5 4 4 3 3 2 2 1 0 -0
12 12 12 13 12 13 13 11 13 16 15 14 13 13 12 12 12 12 12 11 11 11 10 10 9 9 8 8 7 7 6 6 5 4 4 3 3 2 2 1 1 0 -0 -1
13 14 14 14 15 15 12 13 14 14 13 14 14 14 13 12 12 11 11 10 10 10 9 9 8 8 7 7 6 6 5 5 4 4 3 3 2 1 1 0 -0 -1 -1 -2
11 10 12 12 13 13 12 12 13 13 13 13 13 13 13 12 12 11 10 10 9 9 8 8 7 7 6 6 5 5 4 4 3 3 2 2 1 1 0 -0 -1 -1 -2 -3
13 10 11 12 13 12 12 12 13 13 13 13 13 12 12 12 11 10 10 9 8 8 7 7 6 6 5 5 4 4 3 3 2 2 1 1 0 -0 -1 -1 -2 -2 -3 -3
10 11 12 14 14 14 14 14 13 13 13 12 12 11 11 11 10 10 9 8 7 7 6 6 5 5 4 4 3 3 2 2 1 1 0 -0 -1 -1 -2 -2 -3 -3 -4 -4

GEFSCGP_850_meantemp_138.txt.gz
Temperature
19 18 18 19 19 19 19 19 19 20 21 20 18 18 19 21 21 21 21 21 20 20 19 18 17 16 16 15 14 14 13 13 12 12 12 11 11 11 11 10 10 10 10 10
18 17 19 20 20 19 19 18 18 19 21 19 18 18 19 20 20 20 20 20 20 20 19 18 17 16 15 15 14 14 13 13 12 12 12 12 11 11 11 10 10 10 10 10
18 19 19 19 19 18 18 18 18 18 18 19 18 18 20 20 21 21 20 20 20 19 19 18 17 16 15 15 14 14 13 13 13 12 12 11 11 11 10 10 10 10 10 9
18 19 19 18 18 18 18 19 19 18 17 17 18 16 19 20 20 20 20 20 19 19 19 18 17 16 15 15 14 14 13 13 13 12 12 11 11 11 11 10 10 10 10 9
18 19 18 18 18 19 18 18 18 17 16 16 17 17 18 20 20 19 19 20 19 18 18 18 17 16 15 14 14 14 13 13 13 12 12 11 11 11 11 10 10 10 10 10
18 19 19 19 18 18 18 18 17 17 16 15 17 17 18 19 20 20 19 19 19 18 17 17 16 15 15 14 14 13 13 13 12 12 12 11 11 11 10 10 10 10 10 10
17 18 18 18 17 17 17 16 15 15 14 15 18 18 18 20 20 20 19 19 18 18 17 16 16 15 14 14 14 13 13 13 12 12 12 11 11 10 10 10 10 10 10 10
16 17 17 17 17 17 16 16 16 16 16 17 18 17 19 20 20 20 19 19 18 17 17 16 16 15 14 14 14 13 13 13 12 12 12 11 11 10 10 10 10 10 10 10
18 17 18 17 18 18 17 16 17 16 16 16 17 19 20 20 19 19 19 19 18 17 17 16 16 15 15 14 14 14 13 13 12 12 12 11 11 10 10 10 10 9 9 9
18 17 17 16 16 16 16 17 16 15 15 15 17 18 18 18 18 19 18 19 18 18 17 16 16 15 15 14 14 13 13 12 12 12 11 11 10 10 10 9 9 9 9 9
18 17 15 15 15 15 15 16 16 16 16 15 15 17 19 19 19 19 19 19 19 18 17 16 16 15 15 14 13 13 12 12 11 11 11 10 10 10 9 9 9 9 9 8
17 17 15 15 16 17 16 16 16 15 15 16 15 16 20 20 19 19 19 19 19 18 17 16 15 15 14 14 13 12 12 11 11 11 10 10 10 9 9 9 9 9 8 8
16 16 15 15 14 15 15 16 16 16 15 15 14 16 19 18 19 19 19 19 18 18 17 16 15 14 14 13 13 12 12 11 11 10 10 9 9 9 9 9 8 8 8 8
16 15 15 15 16 15 15 15 16 15 14 14 15 16 18 18 18 18 19 19 18 17 16 15 14 14 13 13 12 12 11 11 10 10 9 9 9 9 8 8 8 7 7 7
15 14 15 16 17 17 16 16 15 15 15 15 16 16 17 18 18 18 19 18 18 17 16 15 14 13 13 12 12 11 11 10 10 9 9 9 9 8 8 7 7 7 6 6
14 14 15 15 16 16 16 16 15 15 15 15 15 16 17 18 19 18 18 18 17 16 16 15 14 13 13 12 12 11 11 10 10 9 9 8 8 8 7 7 6 6 6 6
13 13 14 13 15 15 14 15 15 15 15 15 15 16 17 17 17 17 17 17 16 16 15 14 14 13 13 12 12 11 11 10 10 9 8 8 8 7 7 6 6 6 5 5
13 13 12 12 13 11 14 17 16 16 16 16 16 16 16 17 17 17 17 16 16 15 14 14 13 13 12 12 11 11 10 10 9 9 8 8 7 7 6 6 5 5 5 4
13 13 12 11 11 12 15 16 16 15 15 16 16 16 17 17 16 16 16 16 15 15 14 14 13 13 12 11 11 10 10 9 9 8 8 7 6 6 5 5 5 4 4 3
12 12 11 11 11 11 15 16 17 16 14 16 16 15 16 15 12 13 15 15 15 14 14 13 13 12 11 11 10 10 9 9 8 8 7 6 6 5 5 4 4 3 3 3
10 11 10 10 10 12 16 15 15 13 14 16 17 16 16 13 13 15 15 14 14 13 13 12 12 11 11 10 9 9 8 8 7 7 6 6 5 5 4 4 3 3 2 2
10 10 10 10 10 11 13 13 13 14 16 17 16 16 16 15 15 14 14 13 13 12 12 11 11 10 10 9 9 8 7 7 6 6 5 5 4 4 3 3 2 2 1 1
12 12 12 12 13 15 15 15 16 16 16 16 16 15 15 14 14 13 13 12 12 11 11 10 10 9 9 8 8 7 7 6 6 5 5 4 4 3 3 2 1 1 0 0
13 14 13 13 14 15 15 16 16 16 16 16 15 15 14 14 13 12 12 11 11 10 10 9 9 8 8 7 7 6 6 5 5 4 4 3 3 2 2 1 1 0 -0 -1
13 12 12 12 14 14 15 15 15 15 15 15 14 14 14 13 12 12 11 10 10 9 9 8 8 7 7 6 6 5 5 5 4 4 3 2 2 1 1 0 -0 -1 -1 -2
12 12 12 12 13 13 14 15 15 15 14 14 14 13 13 12 12 11 10 10 9 8 8 7 7 6 6 5 5 4 4 4 3 3 2 2 1 1 0 -1 -1 -2 -2 -3

GEFSCGP_850_meantemp_144.txt.gz
Temperature
16 14 14 14 14 15 15 16 15 15 16 16 15 15 16 17 17 16 17 18 19 19 20 19 19 18 18 17 16 16 15 14 13 13 12 12 12 11 11 11 11 11 10 10
13 13 14 15 15 15 15 15 15 15 16 16 14 14 15 15 16 17 18 18 19 19 19 19 19 18 18 17 16 16 15 14 14 13 13 12 12 12 11 11 11 10 10 10
13 15 15 15 15 15 15 15 15 15 15 15 14 14 15 16 17 18 18 19 19 19 19 19 19 18 18 17 17 16 15 15 14 13 13 12 11 11 11 11 11 11 10 10
13 14 15 15 15 15 14 15 15 15 14 13 14 13 14 14 15 16 17 18 19 19 19 19 19 18 18 17 17 16 15 15 14 13 12 12 12 11 11 11 11 11 10 10
14 14 15 15 15 15 15 16 15 15 14 13 12 13 13 14 16 16 16 18 19 19 19 19 19 18 18 17 17 16 15 14 14 13 13 12 12 12 11 11 11 10 10 10
14 15 15 15 15 15 15 15 13 12 11 12 12 12 13 13 16 16 16 18 19 19 19 19 18 18 17 17 16 16 15 14 14 13 13 12 12 12 11 11 11 10 10 10
14 14 15 15 15 15 14 13 12 12 11 12 13 12 13 14 15 16 16 18 19 19 19 19 18 18 17 17 16 15 15 14 14 13 13 12 12 11 11 11 11 10 10 10
12 13 14 14 14 13 13 13 12 12 12 12 13 13 14 15 16 17 18 18 18 18 18 19 18 18 18 17 16 15 15 14 14 13 13 12 12 11 11 11 10 10 10 10
13 13 14 14 14 14 13 12 12 12 12 12 12 12 13 15 15 15 16 17 18 18 18 18 18 18 18 17 16 16 15 14 14 13 13 12 12 11 11 10 10 10 10 9
13 13 13 14 14 14 13 12 11 12 12 11 12 12 14 15 15 15 14 16 18 18 18 18 18 18 17 17 16 16 15 14 14 13 13 12 11 11 10 10 10 9 9 9
13 12 12 13 13 13 12 13 12 11 10 11 11 12 14 14 14 14 15 17 18 18 18 18 18 18 17 16 16 15 15 14 14 13 12 12 11 11 10 10 9 9 9 9
12 11 11 11 12 13 12 12 11 11 11 10 10 12 14 13 14 15 16 17 18 18 18 18 18 17 17 16 16 15 15 14 14 13 12 12 11 10 10 9 9 9 8 8
12 11 11 11 12 12 12 12 12 12 11 9 10 13 14 14 14 15 16 17 18 18 18 17 17 17 16 16 15 15 14 14 13 13 12 11 11 10 10 9 9 8 8 8
12 10 11 12 12 11 11 12 12 12 11 10 11 13 14 14 14 14 16 17 17 18 17 17 17 16 16 15 15 14 14 13 13 12 12 11 11 10 10 9 8 8 8 7
11 10 10 11 12 11 11 12 12 12 12 12 12 12 14 14 13 15 16 17 17 17 17 17 16 16 16 15 14 14 13 13 12 12 11 11 10 10 9 9 8 8 7 7
10 10 10 11 12 11 12 12 12 12 12 12 12 12 13 14 15 15 16 16 16 17 17 17 16 16 15 15 14 14 13 12 12 11 11 10 10 9 9 8 8 7 7 6
9 9 10 10 11 11 11 12 12 12 12 12 13 14 14 13 13 14 16 16 16 17 17 16 16 16 15 15 14 13 13 12 11 11 10 10 9 9 8 8 7 7 6 6
9 9 8 8 10 10 12 12 13 13 13 13 12 13 13 13 15 16 17 17 17 17 16 16 16 15 15 14 14 13 12 12 11 10 10 9 9 8 8 7 7 6 6 5
9 9 8 7 8 9 10 11 12 12 12 13 13 13 13 14 14 14 16 16 17 16 16 16 15 15 14 14 13 12 12 11 10 10 9 9 8 8 7 7 6 6 5 5
8 9 8 7 8 9 11 12 13 12 12 13 12 12 12 12 11 13 16 16 16 16 15 15 14 14 13 13 12 12 11 10 10 9 9 8 8 7 6 6 5 5 4 4
8 8 8 7 8 9 11 12 12 12 12 14 14 14 13 11 14 16 16 15 15 15 14 14 14 13 13 12 11 11 10 10 9 9 8 7 7 6 6 5 5 4 4 3
9 8 7 7 7 9 11 10 12 13 15 15 15 15 15 15 15 15 15 15 14 14 14 13 13 12 12 11 11 10 9 9 8 8 7 6 6 5 5 4 4 3 3 2
9 10 9 9 11 11 12 13 15 16 15 16 16 16 15 15 14 14 14 14 14 13 13 13 12 11 11 10 10 9 8 8 7 7 6 6 5 4 4 3 3 2 2 1
7 8 8 8 9 11 13 14 15 15 16 16 16 16 15 15 15 14 14 14 13 13 12 12 11 10 10 9 8 8 7 7 6 6 5 5 4 4 3 2 2 2 1 0
8 7 8 8 9 10 12 14 15 15 15 15 15 15 15 14 14 14 13 13 12 12 11 10 10 9 9 8 7 7 6 6 5 5 4 4 3 3 2 2 1 1 -0 -1
7 8 9 10 10 10 12 15 15 15 15 14 14 14 14 14 14 13 13 12 11 11 10 9 9 8 7 7 6 6 5 5 4 4 3 3 2 2 1 1 0 -0 -1 -2

GEFSCGP_850_meantemp_150.txt.gz
Temperature
14 12 12 13 13 14 14 14 14 14 14 14 13 13 14 15 14 14 16 17 18 19 19 19 19 19 18 18 17 17 16 16 15 14 13 13 12 12 12 12 11 11 11 10
12 12 13 14 13 14 14 13 13 13 14 14 12 12 13 13 14 15 16 17 18 19 19 19 19 19 19 18 18 17 17 16 15 15 14 13 13 12 12 12 11 11 11 10
12 13 14 14 13 13 13 13 13 14 13 13 12 13 14 14 14 15 16 17 18 19 19 19 19 19 19 18 18 18 17 16 16 15 14 13 12 12 12 11 11 11 11 10
12 13 13 13 13 13 13 13 13 14 13 12 13 12 13 13 13 14 16 17 18 19 19 19 19 19 19 19 18 18 17 16 16 15 14 13 13 12 13 12 12 11 11 10
12 12 13 13 13 13 13 13 13 13 13 12 11 11 12 12 14 15 15 17 18 19 19 19 19 19 19 19 18 17 17 16 16 15 14 13 13 13 12 12 12 11 11 11
12 12 13 13 13 13 13 12 11 10 10 11 11 11 12 12 14 15 15 17 18 19 19 19 19 19 19 18 18 17 17 16 15 15 14 13 13 13 12 12 12 11 11 11
12 12 12 12 12 12 12 12 11 12 11 11 11 10 11 13 13 14 15 17 18 19 19 19 19 19 19 18 18 17 17 16 16 15 14 14 13 13 12 12 12 11 11 11
11 11 12 12 12 12 12 12 12 12 12 11 10 10 12 13 13 14 15 17 18 18 19 19 19 19 19 18 18 17 17 16 16 15 14 14 13 12 12 12 11 11 11 11
11 11 12 12 12 12 11 11 11 11 11 11 10 10 11 12 13 13 14 16 17 18 19 19 19 19 18 18 18 17 17 16 16 15 14 14 13 12 12 12 11 11 11 10
11 11 11 11 12 12 12 10 10 10 11 11 11 10 12 14 14 14 13 15 17 18 19 19 19 18 18 18 18 17 17 16 16 15 14 14 13 13 12 11 11 11 10 10
11 11 10 11 11 11 10 10 10 10 10 10 11 12 12 13 14 13 13 16 17 18 18 18 18 18 18 18 17 17 16 16 15 15 14 14 13 12 12 11 11 11 10 10
10 10 9 10 11 11 11 10 10 10 10 8 9 12 13 12 12 12 14 16 17 18 18 18 18 18 18 17 17 17 16 16 15 15 14 14 13 12 12 11 11 10 10 9
10 10 10 10 10 10 10 9 9 9 9 7 9 12 13 12 12 13 14 16 17 18 18 18 18 18 17 17 17 16 16 16 15 14 14 13 13 12 12 11 11 10 10 9
10 9 10 10 10 9 9 9 9 9 9 8 9 11 13 13 13 13 15 16 17 17 17 17 17 17 17 17 16 16 16 15 15 14 13 13 12 12 11 11 10 10 9 9
9 9 9 10 10 9 10 10 9 10 10 10 11 11 13 13 13 14 15 16 16 17 17 17 17 17 17 17 16 16 15 15 14 13 13 13 12 11 11 11 10 10 9 9
8 8 9 9 9 9 10 10 10 10 10 10 10 11 13 13 13 13 15 15 15 17 17 17 17 17 17 16 16 15 15 14 14 13 13 12 11 11 11 10 10 9 9 8
7 7 8 8 9 9 9 10 10 10 9 10 11 13 13 12 11 13 15 15 16 17 17 17 17 17 17 16 16 15 15 14 13 13 12 11 11 10 10 10 9 9 8 8
7 7 7 7 8 8 10 10 11 11 11 10 11 11 12 12 14 15 16 16 16 17 17 17 17 17 16 16 15 15 14 13 13 12 12 11 10 10 9 9 9 8 8 7
8 7 6 6 7 8 9 9 10 10 10 11 11 11 11 13 12 13 16 16 16 17 17 17 16 16 16 15 15 14 14 13 12 12 11 10 10 9 9 8 8 7 7 6
7 7 7 6 7 8 10 10 10 10 10 11 11 11 11 10 10 13 16 16 16 16 16 16 16 15 15 15 14 14 13 12 12 11 10 10 9 9 8 8 7 7 6 6
6 6 6 6 7 8 9 10 10 10 11 12 12 12 11 10 13 15 15 15 15 15 15 15 15 15 14 14 13 13 12 12 11 10 10 9 8 8 7 7 6 6 5 5
7 6 6 6 7 8 9 8 10 11 13 13 13 14 13 13 14 14 14 15 15 15 14 14 14 14 13 13 12 12 12 11 10 10 9 8 8 7 6 6 5 5 4 4
7 8 8 8 9 10 10 11 13 14 13 14 14 15 14 14 14 14 14 14 14 14 14 13 13 13 13 12 12 11 11 10 9 9 8 7 7 6 6 5 5 4 4 3
6 6 6 7 8 9 10 12 13 13 14 14 14 14 14 14 14 13 13 13 13 13 13 13 13 12 12 11 11 10 10 9 8 8 7 7 6 5 5 4 4 3 3 2
6 5 6 7 7 8 10 11 13 13 13 13 14 14 14 14 13 13 13 13 13 13 12 12 12 12 11 10 10 9 8 8 7 7 6 6 5 4 4 3 3 2 2 1
6 6 7 8 8 8 10 13 13 13 13 13 13 13 13 13 13 13 13 13 12 12 12 11 11 10 10 9 9 8 7 7 6 6 5 5 4 4 3 2 2 1 1 0

GEFSCGP_850_meantemp_156.txt.gz
Temperature
15 16 17 17 18 18 18 18 19 19 18 18 19 19 21 21 20 19 20 20 19 19 18 18 18 18 18 18 17 17 16 16 15 14 14 13 13 13 12 12 12 11 11 11
15 16 17 17 17 17 17 17 18 18 17 17 18 19 20 20 20 19 19 19 19 19 18 18 19 18 18 18 18 17 17 16 16 15 15 14 13 13 13 12 12 11 11 11
15 16 16 16 16 16 16 17 18 18 17 17 17 19 21 20 19 18 18 18 18 18 18 18 18 18 19 18 18 18 17 17 16 16 15 14 13 13 12 12 12 12 11 11
15 16 15 15 16 16 16 17 17 16 17 18 17 18 21 21 20 20 20 19 19 18 18 18 18 18 18 18 18 18 17 17 17 16 15 14 14 13 13 13 12 12 12 11
14 15 15 15 16 16 17 16 16 16 16 17 17 17 20 20 20 21 21 20 19 18 18 18 18 18 19 18 18 18 17 17 16 16 15 15 14 14 13 12 12 12 12 11
14 14 15 16 15 16 15 15 14 15 16 16 17 17 19 21 21 21 21 20 18 18 18 18 18 18 18 18 18 18 17 17 16 16 15 15 14 14 13 13 12 12 12 11
13 13 14 14 14 14 15 15 15 15 15 17 16 16 19 21 20 20 20 19 18 18 18 18 18 18 18 18 18 18 17 17 16 16 15 15 15 14 13 13 12 12 12 11
13 13 14 14 15 14 15 16 16 16 17 18 15 16 20 20 19 17 17 17 17 17 18 18 18 18 18 18 18 18 18 17 17 16 16 15 14 14 13 13 12 12 12 12
13 14 14 14 14 15 14 15 16 16 16 16 17 17 19 19 18 18 17 17 17 17 18 18 18 18 18 18 18 18 18 17 17 16 15 15 14 14 13 13 12 12 12 12
13 13 13 13 13 13 15 15 14 14 15 16 17 18 19 20 20 19 19 18 18 17 17 18 18 18 18 18 18 18 18 17 17 16 16 15 14 14 14 13 13 12 12 11
13 12 11 12 13 13 13 13 14 15 15 16 17 19 19 20 20 20 19 19 18 17 17 17 18 18 18 18 18 17 17 17 16 16 15 15 14 14 13 13 13 12 12 11
12 12 12 13 13 14 14 14 14 14 14 15 17 19 19 18 18 17 18 17 17 17 17 17 17 18 17 17 17 17 17 17 16 16 15 15 14 14 13 13 12 12 12 11
11 11 11 11 11 11 12 13 14 15 15 15 15 18 18 17 16 16 16 16 16 16 17 17 17 17 17 17 17 17 17 17 16 16 15 14 14 14 13 13 12 12 11 11
11 11 12 12 13 12 12 12 13 13 14 15 16 17 18 17 17 17 17 16 16 16 16 17 17 17 17 17 17 17 17 16 16 15 15 14 14 13 13 12 12 11 11 10
10 10 11 12 12 12 12 13 13 13 14 15 16 16 18 18 18 18 17 16 16 16 16 16 16 17 17 17 17 17 16 16 16 15 15 14 14 13 12 12 11 11 10 10
10 10 10 11 11 11 11 12 13 13 14 15 15 16 18 18 17 17 17 16 15 16 16 16 16 16 17 17 17 16 16 16 15 15 14 14 13 12 12 11 11 10 10 9
9 9 9 10 11 10 11 12 13 13 13 14 14 16 17 17 16 16 16 16 15 15 16 16 16 16 17 17 16 16 16 15 15 14 14 13 13 12 11 11 10 10 9 9
8 9 9 9 9 9 13 14 14 14 14 14 15 16 16 16 16 15 15 15 15 15 16 16 16 16 16 16 16 16 15 15 14 14 13 13 12 11 11 10 10 9 9 8
9 9 8 8 9 10 12 12 13 13 13 15 14 15 15 14 13 14 15 15 15 15 15 15 16 16 16 16 15 15 15 14 14 13 13 12 11 11 10 9 9 8 8 8
8 9 8 8 8 10 13 13 12 13 13 15 14 14 14 13 13 15 15 15 15 15 15 15 15 15 15 15 15 15 14 14 14 13 12 12 11 10 9 9 8 8 7 7
7 7 7 8 8 11 13 11 11 12 14 14 13 13 13 13 14 14 14 14 14 14 14 15 14 14 14 14 14 14 14 13 13 12 12 11 10 9 9 8 8 7 7 6
8 7 7 8 8 10 11 10 12 13 13 12 12 12 12 13 13 13 13 13 13 14 14 14 14 14 13 13 13 13 13 13 12 12 11 10 9 9 8 7 7 6 6 5
8 9 9 9 10 12 11 11 12 12 12 12 12 12 12 12 12 12 12 12 13 13 13 13 13 13 13 13 12 12 12 12 12 11 10 9 9 8 7 7 6 6 5 4
8 8 9 9 10 11 10 11 11 11 11 12 12 12 12 12 12 11 12 12 12 12 12 12 12 12 12 12 12 11 12 11 11 10 9 8 8 7 6 6 5 5 4 4
9 8 8 9 10 10 10 10 11 11 11 11 11 11 11 11 11 11 11 11 11 11 11 11 11 11 11 11 11 11 11 10 10 9 8 7 7 6 6 5 4 4 3 3
8 8 9 9 10 10 11 11 11 10 10 10 10 10 11 11 11 11 11 11 11 11 11 11 11 10 10 10 10 10 9 9 9 8 7 7 6 5 5 4 3 3 2 2

GEFSCGP_850_meantemp_162.txt.gz
Temperature
16 15 15 16 17 17 18 18 18 20 20 19 18 18 19 21 21 21 22 22 22 22 22 21 21 20 19 19 18 17 17 16 15 15 14 13 13 13 13 12 12 12 12 12
15 15 16 17 17 17 17 17 17 19 20 19 18 18 19 20 20 21 22 22 22 22 22 21 21 20 19 19 18 18 17 16 16 15 15 14 14 13 13 13 12 12 12 12
14 16 17 17 17 17 17 16 17 18 18 18 18 17 19 20 21 22 22 22 22 22 22 21 20 20 19 19 18 18 17 16 16 15 14 14 13 13 12 12 12 12 12 12
15 16 16 16 16 17 16 17 17 17 16 16 18 16 18 20 20 20 21 21 22 21 21 21 20 20 19 19 18 18 17 16 16 15 15 14 14 14 14 14 13 13 12 12
14 15 15 15 16 17 17 17 17 16 16 15 16 16 17 20 19 20 20 22 22 21 21 20 20 20 19 19 18 18 17 17 16 15 15 15 14 14 14 13 13 12 12 12
14 15 16 16 16 17 17 17 16 16 15 14 16 16 16 19 20 20 20 22 22 21 20 20 20 19 19 19 18 18 17 17 16 16 15 15 15 14 14 13 13 12 12 12
13 14 15 15 15 15 15 14 13 13 13 14 17 16 17 20 21 21 20 21 21 21 20 19 19 19 19 19 18 18 17 17 16 16 15 15 15 14 14 14 13 13 12 12
12 13 14 14 14 14 14 14 13 13 14 15 16 16 18 20 20 21 21 21 21 20 20 19 19 19 19 19 19 18 17 17 16 16 16 15 15 14 14 14 14 13 13 13
13 13 15 15 15 15 14 14 15 14 14 14 16 17 19 19 19 19 19 20 20 20 20 19 19 19 19 19 19 18 18 17 16 16 16 15 15 14 14 14 13 13 13 12
13 13 14 14 14 14 14 14 13 12 12 13 15 16 17 18 18 18 18 18 19 19 19 19 19 19 19 19 18 18 18 17 17 16 16 15 15 15 14 14 13 13 13 12
12 12 12 13 13 13 13 13 13 13 13 13 14 16 19 19 19 18 18 19 19 19 19 19 19 19 19 18 18 18 17 17 16 16 15 15 15 14 14 14 13 13 13 12
11 11 11 12 13 14 13 13 13 12 12 13 13 15 19 18 18 18 18 19 19 19 18 18 18 18 18 18 18 17 17 17 16 16 15 15 15 14 14 14 13 13 13 12
11 10 9 10 11 12 12 13 13 13 13 13 13 15 18 18 18 18 18 18 18 18 18 18 17 17 17 17 17 17 17 17 16 16 15 15 15 14 14 14 13 13 12 12
11 9 9 10 11 11 11 12 12 12 12 12 13 15 16 17 17 17 17 18 18 17 17 17 17 17 17 17 17 17 17 16 16 16 15 15 15 14 14 13 13 13 12 12
9 9 9 10 12 12 11 11 11 12 12 12 13 14 16 17 17 17 17 17 17 17 17 17 16 16 16 16 16 16 16 16 16 15 15 15 15 14 14 13 13 12 12 11
8 8 9 9 11 11 11 11 11 12 12 12 13 14 16 17 17 17 17 17 17 17 17 16 16 16 16 16 16 16 16 16 16 15 15 15 14 14 13 13 13 12 12 11
7 7 8 8 10 10 10 11 11 12 12 13 13 14 15 15 16 16 17 17 17 17 16 16 16 16 16 16 16 16 16 16 16 15 15 14 14 13 13 12 12 12 11 11
7 7 7 7 8 8 10 13 13 12 13 13 14 14 14 15 16 17 17 17 16 16 16 16 16 15 15 15 15 16 15 15 15 15 15 14 14 13 13 12 12 11 11 10
8 7 7 6 7 8 11 12 12 12 12 13 13 14 14 15 15 15 16 16 16 16 16 15 15 15 15 15 15 15 15 15 14 14 14 14 13 13 12 12 11 11 10 10
8 8 7 6 6 7 11 12 13 12 11 12 13 13 13 13 12 13 15 15 15 15 15 15 15 15 14 15 14 14 14 14 14 14 14 13 13 12 12 11 11 10 10 9
6 6 6 6 6 8 11 12 12 10 11 12 13 13 13 12 12 13 14 14 14 14 14 14 14 14 14 14 14 14 14 13 13 13 13 12 12 12 11 10 10 9 9 8
7 6 6 6 6 7 10 10 10 11 12 12 12 12 12 12 13 13 13 13 13 13 14 14 14 13 13 13 13 13 13 13 12 12 12 12 11 11 10 10 9 9 8 7
8 8 7 7 8 9 11 11 11 11 11 11 11 11 11 11 12 12 12 12 12 12 12 13 13 13 12 12 12 12 12 12 12 11 11 11 10 10 9 9 9 8 7 6
8 8 8 8 8 9 11 11 11 11 11 11 10 10 10 10 10 11 11 11 11 11 11 11 12 12 12 12 11 11 11 11 11 10 10 10 10 9 9 8 8 7 7 6
8 7 7 7 8 9 10 10 10 10 10 10 10 10 10 10 10 10 10 10 10 10 10 10 10 10 11 11 10 10 10 10 10 9 9 9 9 8 8 7 7 6 6 5
7 7 7 7 9 8 9 10 10 9 9 9 9 9 9 9 9 9 9 9 9 9 10 10 9 10 10 10 10 10 9 9 9 9 9 8 8 7 7 6 5 5 4 4

GEFSCGP_850_meantemp_168.txt.gz
Temperature
12 11 11 12 12 13 13 13 13 14 15 15 14 15 16 17 17 17 18 19 19 20 21 21 21 21 20 19 19 18 18 17 16 15 15 14 14 14 14 13 13 13 13 12
11 11 12 13 13 13 13 13 13 14 15 15 14 14 15 15 16 17 18 19 19 20 20 21 21 21 20 20 19 19 18 18 17 16 16 16 15 15 14 14 13 13 13 12
10 12 13 13 13 13 13 12 13 13 14 14 14 14 14 15 16 17 18 19 20 20 20 21 21 21 20 20 20 19 19 18 17 17 16 15 14 13 13 13 13 13 13 12
10 12 12 12 13 13 12 13 13 13 13 12 13 12 13 14 15 16 17 18 19 20 21 21 21 21 20 20 20 19 19 18 18 17 16 15 15 14 15 15 14 13 13 13
10 11 12 12 13 13 13 13 13 13 12 12 12 12 12 13 14 15 16 18 19 20 20 21 21 21 21 21 20 20 19 18 18 17 16 16 16 16 15 14 14 13 13 13
11 12 12 12 13 13 13 13 12 12 11 11 12 11 12 13 14 15 16 18 19 20 20 20 21 21 21 20 20 19 19 18 18 17 17 16 16 16 15 14 14 14 13 13
10 11 12 12 12 12 12 11 11 11 10 11 12 12 12 13 14 15 16 18 19 20 20 20 20 20 20 20 20 19 19 18 18 17 17 17 16 16 15 15 15 14 14 13
9 10 11 11 12 11 11 11 11 11 10 10 11 12 13 14 14 16 17 18 19 19 19 19 20 20 20 20 19 19 19 18 18 18 17 17 16 16 15 15 15 14 14 14
9 9 11 11 12 12 11 11 11 11 10 10 10 11 12 14 14 15 15 16 17 18 19 19 19 20 19 19 19 19 19 18 18 18 17 17 16 16 16 15 15 14 14 14
9 9 10 11 11 11 11 11 10 10 10 10 10 11 12 14 14 15 14 15 17 18 18 19 19 19 19 19 19 19 18 18 18 18 17 17 16 16 16 15 14 14 14 13
9 8 9 9 10 10 10 11 10 10 9 9 9 11 13 13 14 14 14 16 17 17 18 18 18 18 18 18 18 18 18 18 17 17 17 17 16 16 15 15 14 14 14 13
8 8 8 8 9 10 10 10 10 9 9 9 9 11 13 13 13 14 14 16 17 17 17 18 18 18 18 18 18 18 18 18 18 17 17 17 16 16 15 15 14 14 13 13
8 7 7 7 8 9 9 9 9 9 9 8 9 11 13 12 13 14 14 15 16 16 17 17 17 17 17 17 17 17 18 18 17 17 17 16 16 16 15 15 14 14 13 13
8 6 7 8 8 8 8 8 9 9 8 8 9 10 12 12 13 13 14 15 15 16 16 16 17 17 17 17 17 17 17 17 17 17 16 16 16 15 15 15 14 14 13 13
7 6 6 7 8 8 8 8 9 9 9 9 10 10 12 12 12 13 14 14 14 15 15 15 16 16 17 17 17 17 17 17 16 16 16 16 16 15 15 14 14 13 13 12
6 6 6 6 7 8 8 8 9 9 9 9 9 10 12 12 13 12 13 13 13 14 14 15 15 15 16 16 16 16 16 16 16 16 16 16 15 15 14 14 14 13 13 12
5 5 5 6 7 7 7 8 9 9 9 9 10 11 11 11 11 12 12 13 13 13 14 14 15 15 15 15 16 16 16 16 15 15 15 15 15 15 14 14 13 13 12 12
5 5 5 5 6 6 8 9 9 9 9 10 10 10 11 11 12 12 13 13 13 13 13 14 14 14 15 15 15 15 15 15 15 15 15 15 14 14 14 13 13 12 12 11
5 5 4 4 5 6 7 8 8 8 9 9 9 10 10 11 11 11 12 12 12 13 13 13 14 14 14 14 14 14 14 14 14 14 14 14 14 14 13 13 12 12 11 11
5 5 5 4 5 5 7 8 9 8 8 9 9 9 9 9 8 10 11 11 12 12 12 12 13 13 13 13 14 14 14 14 14 14 14 14 13 13 13 12 12 11 11 10
4 4 4 4 5 6 7 8 8 7 8 8 9 9 9 8 9 10 10 11 11 11 11 12 12 12 12 13 13 13 13 13 13 13 13 13 13 12 12 11 11 10 10 9
5 4 4 4 4 5 7 7 7 8 9 9 9 9 9 9 9 9 10 10 10 10 11 11 11 11 12 12 12 12 12 12 12 12 12 12 12 11 11 10 10 9 9 8
5 5 5 5 6 7 8 8 9 9 9 9 9 9 9 9 9 9 9 9 9 10 10 10 10 10 11 11 11 11 12 12 11 11 11 11 11 10 10 10 9 8 8 8
4 5 4 4 5 6 7 8 8 8 8 8 8 8 8 8 8 8 8 9 9 9 9 9 9 10 10 10 10 10 10 10 10 10 10 10 10 9 9 9 8 8 8 7
4 4 4 4 5 5 7 7 8 8 8 8 8 8 7 7 7 7 7 8 8 8 8 8 8 9 9 9 9 9 9 9 9 9 9 9 9 8 8 8 7 7 7 7
3 3 3 4 5 5 6 7 7 7 7 7 7 7 7 6 6 6 6 7 7 6 7 7 7 7 7 8 8 8 8 8 8 8 8 8 8 7 7 6 6 5 5 5